Time,TemperatureF,DewpointF,PressureIn,WindDirection,WindDirectionDegrees,WindSpeedMPH,WindSpeedGustMPH,Humidity,HourlyPrecipIn,Conditions,Clouds,dailyrainin,SoftwareType,DateUTC
2013-02-04 00:00:00,37.2,5.5,29.98,East,89,0.0,4.0,26,0.00,,,0.00,meteohub,2013-02-04 07:00:00,
2013-02-04 00:01:00,37.0,5.4,29.98,East,89,0.0,4.0,26,0.00,,,0.00,meteohub,2013-02-04 07:01:00,
2013-02-04 00:04:00,37.0,5.4,29.97,East,89,0.0,4.0,26,0.00,,,0.00,meteohub,2013-02-04 07:04:00,
2013-02-04 00:06:00,36.9,5.2,29.98,East,89,0.0,2.0,26,0.00,,,0.00,meteohub,2013-02-04 07:06:00,
2013-02-04 00:07:00,36.9,5.9,29.98,East,89,0.0,2.0,27,0.00,,,0.00,meteohub,2013-02-04 07:07:00,
2013-02-04 00:09:00,36.9,5.2,29.98,East,89,1.0,2.0,26,0.00,,,0.00,meteohub,2013-02-04 07:09:00,
2013-02-04 00:11:00,36.9,5.2,29.98,East,89,0.0,2.0,26,0.00,,,0.00,meteohub,2013-02-04 07:11:00,
2013-02-04 00:12:00,36.9,5.2,29.97,East,89,0.0,2.0,26,0.00,,,0.00,meteohub,2013-02-04 07:12:00,
2013-02-04 00:13:00,36.9,5.2,29.97,East,89,0.0,2.0,26,0.00,,,0.00,meteohub,2013-02-04 07:13:00,
2013-02-04 00:16:00,36.9,5.2,29.97,East,89,0.0,2.0,26,0.00,,,0.00,meteohub,2013-02-04 07:16:00,
2013-02-04 00:17:00,36.9,5.2,29.97,East,89,0.0,2.0,26,0.00,,,0.00,meteohub,2013-02-04 07:17:00,
2013-02-04 00:20:00,36.9,5.9,29.98,East,96,2.0,4.0,27,0.00,,,0.00,meteohub,2013-02-04 07:20:00,
2013-02-04 00:21:00,36.9,5.9,29.98,East,96,2.0,4.0,27,0.00,,,0.00,meteohub,2013-02-04 07:21:00,
2013-02-04 00:22:00,36.9,5.9,29.98,East,96,0.0,4.0,27,0.00,,,0.00,meteohub,2013-02-04 07:22:00,
2013-02-04 00:23:00,36.9,5.9,29.98,East,96,0.0,4.0,27,0.00,,,0.00,meteohub,2013-02-04 07:23:00,
2013-02-04 00:26:00,36.9,6.8,29.98,SE,137,4.0,4.0,28,0.00,,,0.00,meteohub,2013-02-04 07:26:00,
2013-02-04 00:27:00,36.9,6.8,29.98,SE,137,2.0,4.0,28,0.00,,,0.00,meteohub,2013-02-04 07:27:00,
2013-02-04 00:28:00,36.9,6.8,29.98,SE,138,6.0,6.0,28,0.00,,,0.00,meteohub,2013-02-04 07:28:00,
2013-02-04 00:32:00,36.9,6.8,29.97,SSE,167,5.0,6.0,28,0.00,,,0.00,meteohub,2013-02-04 07:32:00,
2013-02-04 00:33:00,36.7,6.6,29.97,South,188,4.0,6.0,28,0.00,,,0.00,meteohub,2013-02-04 07:33:00,
2013-02-04 00:35:00,36.7,7.3,29.97,SSE,163,5.0,7.0,29,0.00,,,0.00,meteohub,2013-02-04 07:35:00,
2013-02-04 00:37:00,36.7,7.3,29.97,South,169,4.0,7.0,29,0.00,,,0.00,meteohub,2013-02-04 07:37:00,
2013-02-04 00:38:00,36.7,7.3,29.97,South,178,4.0,7.0,29,0.00,,,0.00,meteohub,2013-02-04 07:38:00,
2013-02-04 00:42:00,36.3,7.2,29.97,South,181,3.0,7.0,29,0.00,,,0.00,meteohub,2013-02-04 07:42:00,
2013-02-04 00:43:00,36.3,7.2,29.96,South,188,5.0,7.0,29,0.00,,,0.00,meteohub,2013-02-04 07:43:00,
2013-02-04 00:44:00,36.3,7.2,29.97,South,188,4.0,7.0,29,0.00,,,0.00,meteohub,2013-02-04 07:44:00,
2013-02-04 00:48:00,36.1,7.7,29.97,SSW,192,0.0,7.0,30,0.00,,,0.00,meteohub,2013-02-04 07:48:00,
2013-02-04 00:50:00,36.1,8.4,29.97,SSW,192,0.0,7.0,31,0.00,,,0.00,meteohub,2013-02-04 07:50:00,
2013-02-04 00:52:00,36.1,7.7,29.97,ENE,72,1.0,7.0,30,0.00,,,0.00,meteohub,2013-02-04 07:52:00,
2013-02-04 00:53:00,36.1,7.7,29.97,ENE,72,0.0,7.0,30,0.00,,,0.00,meteohub,2013-02-04 07:53:00,
2013-02-04 00:55:00,36.0,7.5,29.97,ENE,72,0.0,7.0,30,0.00,,,0.00,meteohub,2013-02-04 07:55:00,
2013-02-04 00:56:00,36.0,8.2,29.97,ENE,72,0.0,7.0,31,0.00,,,0.00,meteohub,2013-02-04 07:56:00,
2013-02-04 00:57:00,35.8,7.3,29.97,SSE,160,4.0,7.0,30,0.00,,,0.00,meteohub,2013-02-04 07:57:00,
2013-02-04 00:58:00,35.6,7.2,29.96,South,173,4.0,7.0,30,0.00,,,0.00,meteohub,2013-02-04 07:58:00,
2013-02-04 01:00:00,35.4,7.0,29.96,South,185,4.0,6.0,30,0.00,,,0.00,meteohub,2013-02-04 08:00:00,
2013-02-04 01:03:00,35.2,7.7,29.96,SSW,209,4.0,6.0,31,0.00,,,0.00,meteohub,2013-02-04 08:03:00,
2013-02-04 01:06:00,35.2,7.7,29.96,SSW,207,3.0,6.0,31,0.00,,,0.00,meteohub,2013-02-04 08:06:00,
2013-02-04 01:07:00,35.2,7.7,29.96,SSW,207,0.0,6.0,31,0.00,,,0.00,meteohub,2013-02-04 08:07:00,
2013-02-04 01:08:00,35.2,7.7,29.96,SSW,207,0.0,6.0,31,0.00,,,0.00,meteohub,2013-02-04 08:08:00,
2013-02-04 01:09:00,35.1,7.5,29.96,SSW,207,0.0,6.0,31,0.00,,,0.00,meteohub,2013-02-04 08:09:00,
2013-02-04 01:12:00,35.1,7.5,29.97,SSW,207,2.0,6.0,31,0.00,,,0.00,meteohub,2013-02-04 08:12:00,
2013-02-04 01:14:00,35.1,7.5,29.97,SSW,207,2.0,6.0,31,0.00,,,0.00,meteohub,2013-02-04 08:14:00,
2013-02-04 01:17:00,35.1,7.5,29.97,South,190,2.0,5.0,31,0.00,,,0.00,meteohub,2013-02-04 08:17:00,
2013-02-04 01:19:00,34.9,7.3,29.97,South,190,4.0,5.0,31,0.00,,,0.00,meteohub,2013-02-04 08:19:00,
2013-02-04 01:22:00,34.9,8.1,29.96,South,188,2.0,5.0,32,0.00,,,0.00,meteohub,2013-02-04 08:22:00,
2013-02-04 01:24:00,34.9,8.1,29.97,South,188,0.0,5.0,32,0.00,,,0.00,meteohub,2013-02-04 08:24:00,
2013-02-04 01:25:00,34.9,8.1,29.97,South,188,1.0,6.0,32,0.00,,,0.00,meteohub,2013-02-04 08:25:00,
2013-02-04 01:27:00,34.7,7.9,29.97,South,188,2.0,6.0,32,0.00,,,0.00,meteohub,2013-02-04 08:27:00,
2013-02-04 01:28:00,34.5,7.7,29.97,SSE,167,0.0,6.0,32,0.00,,,0.00,meteohub,2013-02-04 08:28:00,
2013-02-04 01:29:00,34.3,8.2,29.97,SSE,167,0.0,6.0,33,0.00,,,0.00,meteohub,2013-02-04 08:29:00,
2013-02-04 01:30:00,34.3,8.2,29.97,SSE,167,0.0,6.0,33,0.00,,,0.00,meteohub,2013-02-04 08:30:00,
2013-02-04 01:32:00,34.3,8.2,29.97,SSE,167,0.0,6.0,33,0.00,,,0.00,meteohub,2013-02-04 08:32:00,
2013-02-04 01:35:00,34.2,8.8,29.97,SSE,167,0.0,6.0,34,0.00,,,0.00,meteohub,2013-02-04 08:35:00,
2013-02-04 01:36:00,34.2,8.8,29.97,SSE,167,0.0,6.0,34,0.00,,,0.00,meteohub,2013-02-04 08:36:00,
2013-02-04 01:37:00,34.2,8.8,29.97,SSE,167,1.0,6.0,34,0.00,,,0.00,meteohub,2013-02-04 08:37:00,
2013-02-04 01:40:00,34.0,8.6,29.97,SSW,198,4.0,6.0,34,0.00,,,0.00,meteohub,2013-02-04 08:40:00,
2013-02-04 01:41:00,33.8,8.4,29.97,SSW,198,3.0,6.0,34,0.00,,,0.00,meteohub,2013-02-04 08:41:00,
2013-02-04 01:42:00,33.6,8.2,29.97,South,182,4.0,6.0,34,0.00,,,0.00,meteohub,2013-02-04 08:42:00,
2013-02-04 01:43:00,33.4,8.1,29.97,South,190,4.0,6.0,34,0.00,,,0.00,meteohub,2013-02-04 08:43:00,
2013-02-04 01:45:00,33.4,8.1,29.97,South,182,3.0,6.0,34,0.00,,,0.00,meteohub,2013-02-04 08:45:00,
2013-02-04 01:46:00,33.4,8.1,29.97,South,174,4.0,6.0,34,0.00,,,0.00,meteohub,2013-02-04 08:46:00,
2013-02-04 01:47:00,33.4,8.1,29.97,South,174,2.0,6.0,34,0.00,,,0.00,meteohub,2013-02-04 08:47:00,
2013-02-04 01:50:00,33.4,8.8,29.98,South,174,1.0,7.0,35,0.00,,,0.00,meteohub,2013-02-04 08:50:00,
2013-02-04 01:51:00,33.4,8.8,29.98,South,174,2.0,7.0,35,0.00,,,0.00,meteohub,2013-02-04 08:51:00,
2013-02-04 01:52:00,33.4,8.8,29.98,South,174,1.0,7.0,35,0.00,,,0.00,meteohub,2013-02-04 08:52:00,
2013-02-04 01:56:00,33.3,8.6,29.98,South,174,2.0,7.0,35,0.00,,,0.00,meteohub,2013-02-04 08:56:00,
2013-02-04 01:57:00,33.1,8.4,29.98,South,174,0.0,7.0,35,0.00,,,0.00,meteohub,2013-02-04 08:57:00,
2013-02-04 01:58:00,32.9,8.2,29.98,South,174,0.0,7.0,35,0.00,,,0.00,meteohub,2013-02-04 08:58:00,
2013-02-04 02:02:00,32.5,7.9,29.98,South,174,0.0,7.0,35,0.00,,,0.00,meteohub,2013-02-04 09:02:00,
2013-02-04 02:04:00,32.5,8.6,29.98,South,174,0.0,7.0,36,0.00,,,0.00,meteohub,2013-02-04 09:04:00,
2013-02-04 02:07:00,32.4,8.4,29.98,South,174,0.0,2.0,36,0.00,,,0.00,meteohub,2013-02-04 09:07:00,
2013-02-04 02:08:00,32.2,8.8,29.98,South,174,0.0,2.0,37,0.00,,,0.00,meteohub,2013-02-04 09:08:00,
2013-02-04 02:10:00,32.0,8.6,29.98,South,174,0.0,4.0,37,0.00,,,0.00,meteohub,2013-02-04 09:10:00,
2013-02-04 02:13:00,31.6,9.0,29.98,South,174,1.0,4.0,38,0.00,,,0.00,meteohub,2013-02-04 09:13:00,
2013-02-04 02:14:00,31.5,8.8,29.99,South,174,0.0,4.0,38,0.00,,,0.00,meteohub,2013-02-04 09:14:00,
2013-02-04 02:16:00,31.3,8.6,29.99,South,174,0.0,4.0,38,0.00,,,0.00,meteohub,2013-02-04 09:16:00,
2013-02-04 02:18:00,31.1,8.4,29.99,South,174,0.0,4.0,38,0.00,,,0.00,meteohub,2013-02-04 09:18:00,
2013-02-04 02:20:00,30.9,8.2,29.98,South,174,0.0,4.0,38,0.00,,,0.00,meteohub,2013-02-04 09:20:00,
2013-02-04 02:21:00,30.9,7.7,29.99,South,174,0.0,4.0,37,0.00,,,0.00,meteohub,2013-02-04 09:21:00,
2013-02-04 02:23:00,30.9,8.2,29.99,South,174,1.0,4.0,38,0.00,,,0.00,meteohub,2013-02-04 09:23:00,
2013-02-04 02:24:00,30.7,8.1,29.99,South,174,0.0,4.0,38,0.00,,,0.00,meteohub,2013-02-04 09:24:00,
2013-02-04 02:27:00,30.7,8.8,29.99,South,174,0.0,2.0,39,0.00,,,0.00,meteohub,2013-02-04 09:27:00,
2013-02-04 02:29:00,30.6,9.1,29.99,WNW,298,3.0,3.0,40,0.00,,,0.00,meteohub,2013-02-04 09:29:00,
2013-02-04 02:32:00,30.4,8.4,29.99,SSW,207,5.0,5.0,39,0.00,,,0.00,meteohub,2013-02-04 09:32:00,
2013-02-04 02:33:00,30.4,8.4,29.99,SSW,207,4.0,5.0,39,0.00,,,0.00,meteohub,2013-02-04 09:33:00,
2013-02-04 02:34:00,30.4,7.9,29.99,NNW,338,3.0,5.0,38,0.00,,,0.00,meteohub,2013-02-04 09:34:00,
2013-02-04 02:37:00,30.4,9.0,29.99,WNW,300,4.0,5.0,40,0.00,,,0.00,meteohub,2013-02-04 09:37:00,
2013-02-04 02:38:00,30.4,8.4,29.99,WNW,300,2.0,5.0,39,0.00,,,0.00,meteohub,2013-02-04 09:38:00,
2013-02-04 02:40:00,30.4,7.9,29.99,SW,230,6.0,7.0,38,0.00,,,0.00,meteohub,2013-02-04 09:40:00,
2013-02-04 02:45:00,31.6,7.7,29.98,West,277,7.0,7.0,36,0.00,,,0.00,meteohub,2013-02-04 09:45:00,
2013-02-04 02:48:00,32.5,7.3,29.98,SW,234,6.0,10.0,34,0.00,,,0.00,meteohub,2013-02-04 09:48:00,
2013-02-04 02:49:00,32.7,6.8,29.98,SW,225,5.0,10.0,33,0.00,,,0.00,meteohub,2013-02-04 09:49:00,
2013-02-04 02:50:00,33.1,7.2,29.98,WSW,245,3.0,11.0,33,0.00,,,0.00,meteohub,2013-02-04 09:50:00,
2013-02-04 02:52:00,33.6,6.3,29.98,WSW,258,0.0,11.0,31,0.00,,,0.00,meteohub,2013-02-04 09:52:00,
2013-02-04 02:54:00,34.0,6.4,29.98,WSW,258,3.0,11.0,31,0.00,,,0.00,meteohub,2013-02-04 09:54:00,
2013-02-04 02:56:00,34.3,6.8,29.98,SW,234,5.0,11.0,31,0.00,,,0.00,meteohub,2013-02-04 09:56:00,
2013-02-04 02:58:00,34.9,7.3,29.98,SSW,200,4.0,11.0,31,0.00,,,0.00,meteohub,2013-02-04 09:58:00,
2013-02-04 03:00:00,35.2,7.7,29.98,SW,234,3.0,11.0,31,0.00,,,0.00,meteohub,2013-02-04 10:00:00,
2013-02-04 03:02:00,35.4,7.0,29.98,SW,234,1.0,11.0,30,0.00,,,0.00,meteohub,2013-02-04 10:02:00,
2013-02-04 03:03:00,35.4,7.0,29.97,NNE,19,5.0,11.0,30,0.00,,,0.00,meteohub,2013-02-04 10:03:00,
2013-02-04 03:04:00,35.4,9.1,29.97,NNE,21,0.0,11.0,33,0.00,,,0.00,meteohub,2013-02-04 10:04:00,
2013-02-04 03:06:00,35.2,9.0,29.97,NNE,21,0.0,6.0,33,0.00,,,0.00,meteohub,2013-02-04 10:06:00,
2013-02-04 03:07:00,35.1,8.8,29.97,North,5,4.0,6.0,33,0.00,,,0.00,meteohub,2013-02-04 10:07:00,
2013-02-04 03:08:00,35.1,8.8,29.98,North,5,1.0,6.0,33,0.00,,,0.00,meteohub,2013-02-04 10:08:00,
2013-02-04 03:11:00,34.7,7.2,29.97,SSE,167,2.0,6.0,31,0.00,,,0.00,meteohub,2013-02-04 10:11:00,
2013-02-04 03:13:00,34.7,7.2,29.97,SSE,167,1.0,6.0,31,0.00,,,0.00,meteohub,2013-02-04 10:13:00,
2013-02-04 03:15:00,34.9,7.3,29.97,SW,217,5.0,5.0,31,0.00,,,0.00,meteohub,2013-02-04 10:15:00,
2013-02-04 03:16:00,34.9,7.3,29.97,SSW,205,3.0,5.0,31,0.00,,,0.00,meteohub,2013-02-04 10:16:00,
2013-02-04 03:18:00,34.9,8.1,29.96,SSW,193,2.0,5.0,32,0.00,,,0.00,meteohub,2013-02-04 10:18:00,
2013-02-04 03:20:00,34.7,7.9,29.96,SSW,193,2.0,5.0,32,0.00,,,0.00,meteohub,2013-02-04 10:20:00,
2013-02-04 03:21:00,34.5,7.7,29.96,SSW,194,5.0,7.0,32,0.00,,,0.00,meteohub,2013-02-04 10:21:00,
2013-02-04 03:22:00,34.5,7.7,29.96,SSW,195,3.0,7.0,32,0.00,,,0.00,meteohub,2013-02-04 10:22:00,
2013-02-04 03:23:00,34.5,7.7,29.96,SSW,198,4.0,7.0,32,0.00,,,0.00,meteohub,2013-02-04 10:23:00,
2013-02-04 03:26:00,34.3,8.2,29.96,South,184,3.0,7.0,33,0.00,,,0.00,meteohub,2013-02-04 10:26:00,
2013-02-04 03:27:00,34.3,8.2,29.96,South,185,0.0,7.0,33,0.00,,,0.00,meteohub,2013-02-04 10:27:00,
2013-02-04 03:29:00,34.3,8.2,29.96,South,185,0.0,7.0,33,0.00,,,0.00,meteohub,2013-02-04 10:29:00,
2013-02-04 03:32:00,34.2,8.8,29.96,South,185,0.0,7.0,34,0.00,,,0.00,meteohub,2013-02-04 10:32:00,
2013-02-04 03:33:00,34.2,8.8,29.96,South,185,0.0,7.0,34,0.00,,,0.00,meteohub,2013-02-04 10:33:00,
2013-02-04 03:35:00,34.0,8.6,29.96,SSW,209,3.0,5.0,34,0.00,,,0.00,meteohub,2013-02-04 10:35:00,
2013-02-04 03:37:00,33.6,8.2,29.96,SW,214,5.0,5.0,34,0.00,,,0.00,meteohub,2013-02-04 10:37:00,
2013-02-04 03:39:00,33.4,8.8,29.96,SSW,209,0.0,5.0,35,0.00,,,0.00,meteohub,2013-02-04 10:39:00,
2013-02-04 03:42:00,33.1,9.0,29.96,NW,310,3.0,6.0,36,0.00,,,0.00,meteohub,2013-02-04 10:42:00,
2013-02-04 03:43:00,32.9,8.8,29.96,NW,310,0.0,6.0,36,0.00,,,0.00,meteohub,2013-02-04 10:43:00,
2013-02-04 03:44:00,32.7,8.8,29.96,NW,310,0.0,6.0,36,0.00,,,0.00,meteohub,2013-02-04 10:44:00,
2013-02-04 03:46:00,32.5,8.6,29.96,NW,310,0.0,6.0,36,0.00,,,0.00,meteohub,2013-02-04 10:46:00,
2013-02-04 03:49:00,32.5,8.6,29.96,NW,310,1.0,6.0,36,0.00,,,0.00,meteohub,2013-02-04 10:49:00,
2013-02-04 03:51:00,32.4,8.4,29.96,NW,310,2.0,6.0,36,0.00,,,0.00,meteohub,2013-02-04 10:51:00,
2013-02-04 03:52:00,32.2,8.2,29.96,NW,310,1.0,6.0,36,0.00,,,0.00,meteohub,2013-02-04 10:52:00,
2013-02-04 03:54:00,31.8,8.4,29.96,ENE,78,4.0,6.0,37,0.00,,,0.00,meteohub,2013-02-04 10:54:00,
2013-02-04 03:56:00,31.3,8.6,29.96,East,89,3.0,3.0,38,0.00,,,0.00,meteohub,2013-02-04 10:56:00,
2013-02-04 03:57:00,31.1,9.0,29.96,East,89,3.0,3.0,39,0.00,,,0.00,meteohub,2013-02-04 10:57:00,
2013-02-04 03:59:00,30.9,8.8,29.96,East,89,3.0,3.0,39,0.00,,,0.00,meteohub,2013-02-04 10:59:00,
2013-02-04 04:02:00,30.7,8.8,29.96,East,89,0.0,5.0,39,0.00,,,0.00,meteohub,2013-02-04 11:02:00,
2013-02-04 04:03:00,30.7,8.8,29.96,East,89,0.0,5.0,39,0.00,,,0.00,meteohub,2013-02-04 11:03:00,
2013-02-04 04:04:00,30.7,8.8,29.96,East,89,0.0,5.0,39,0.00,,,0.00,meteohub,2013-02-04 11:04:00,
2013-02-04 04:07:00,30.6,8.6,29.96,East,89,0.0,5.0,39,0.00,,,0.00,meteohub,2013-02-04 11:07:00,
2013-02-04 04:08:00,30.6,8.6,29.96,East,89,0.0,5.0,39,0.00,,,0.00,meteohub,2013-02-04 11:08:00,
2013-02-04 04:12:00,30.6,9.1,29.96,East,89,0.0,4.0,40,0.00,,,0.00,meteohub,2013-02-04 11:12:00,
2013-02-04 04:13:00,30.4,9.0,29.96,East,89,0.0,4.0,40,0.00,,,0.00,meteohub,2013-02-04 11:13:00,
2013-02-04 04:16:00,30.4,9.0,29.96,East,89,0.0,2.0,40,0.00,,,0.00,meteohub,2013-02-04 11:16:00,
2013-02-04 04:17:00,30.2,9.3,29.96,East,89,0.0,2.0,41,0.00,,,0.00,meteohub,2013-02-04 11:17:00,
2013-02-04 04:19:00,30.0,8.6,29.96,East,89,0.0,2.0,40,0.00,,,0.00,meteohub,2013-02-04 11:19:00,
2013-02-04 04:20:00,30.0,9.1,29.96,East,89,0.0,2.0,41,0.00,,,0.00,meteohub,2013-02-04 11:20:00,
2013-02-04 04:22:00,29.8,9.0,29.96,East,89,0.0,2.0,41,0.00,,,0.00,meteohub,2013-02-04 11:22:00,
2013-02-04 04:25:00,29.7,8.8,29.96,East,89,1.0,2.0,41,0.00,,,0.00,meteohub,2013-02-04 11:25:00,
2013-02-04 04:26:00,29.7,9.3,29.96,East,89,2.0,2.0,42,0.00,,,0.00,meteohub,2013-02-04 11:26:00,
2013-02-04 04:27:00,29.5,9.7,29.96,East,89,2.0,2.0,43,0.00,,,0.00,meteohub,2013-02-04 11:27:00,
2013-02-04 04:28:00,29.3,9.5,29.96,East,89,0.0,2.0,43,0.00,,,0.00,meteohub,2013-02-04 11:28:00,
2013-02-04 04:31:00,28.9,9.7,29.96,East,89,1.0,3.0,44,0.00,,,0.00,meteohub,2013-02-04 11:31:00,
2013-02-04 04:32:00,28.9,9.7,29.96,East,89,1.0,3.0,44,0.00,,,0.00,meteohub,2013-02-04 11:32:00,
2013-02-04 04:33:00,28.8,9.7,29.96,East,89,0.0,3.0,44,0.00,,,0.00,meteohub,2013-02-04 11:33:00,
2013-02-04 04:34:00,28.6,9.5,29.96,East,89,2.0,3.0,44,0.00,,,0.00,meteohub,2013-02-04 11:34:00,
2013-02-04 04:36:00,28.6,9.5,29.96,East,89,3.0,3.0,44,0.00,,,0.00,meteohub,2013-02-04 11:36:00,
2013-02-04 04:38:00,28.4,9.7,29.96,East,89,0.0,3.0,45,0.00,,,0.00,meteohub,2013-02-04 11:38:00,
2013-02-04 04:39:00,28.2,9.7,29.96,East,89,0.0,3.0,45,0.00,,,0.00,meteohub,2013-02-04 11:39:00,
2013-02-04 04:41:00,28.2,9.7,29.96,East,89,3.0,3.0,45,0.00,,,0.00,meteohub,2013-02-04 11:41:00,
2013-02-04 04:42:00,28.2,9.7,29.96,East,89,3.0,3.0,45,0.00,,,0.00,meteohub,2013-02-04 11:42:00,
2013-02-04 04:44:00,28.0,9.9,29.96,East,89,2.0,3.0,46,0.00,,,0.00,meteohub,2013-02-04 11:44:00,
2013-02-04 04:46:00,27.9,10.2,29.96,East,89,0.0,4.0,47,0.00,,,0.00,meteohub,2013-02-04 11:46:00,
2013-02-04 04:47:00,27.9,10.2,29.96,East,89,0.0,4.0,47,0.00,,,0.00,meteohub,2013-02-04 11:47:00,
2013-02-04 04:49:00,27.9,9.7,29.96,East,89,0.0,4.0,46,0.00,,,0.00,meteohub,2013-02-04 11:49:00,
2013-02-04 04:52:00,27.7,9.7,29.96,East,89,0.0,4.0,46,0.00,,,0.00,meteohub,2013-02-04 11:52:00,
2013-02-04 04:53:00,27.7,10.0,29.96,East,89,2.0,4.0,47,0.00,,,0.00,meteohub,2013-02-04 11:53:00,
2013-02-04 04:55:00,27.7,10.0,29.96,East,89,0.0,4.0,47,0.00,,,0.00,meteohub,2013-02-04 11:55:00,
2013-02-04 04:57:00,27.5,9.9,29.96,East,89,0.0,4.0,47,0.00,,,0.00,meteohub,2013-02-04 11:57:00,
2013-02-04 04:58:00,27.3,9.7,29.96,East,89,0.0,4.0,47,0.00,,,0.00,meteohub,2013-02-04 11:58:00,
2013-02-04 05:00:00,27.1,10.0,29.96,East,89,2.0,3.0,48,0.00,,,0.00,meteohub,2013-02-04 12:00:00,
2013-02-04 05:02:00,27.1,10.6,29.96,East,89,2.0,3.0,49,0.00,,,0.00,meteohub,2013-02-04 12:02:00,
2013-02-04 05:03:00,27.0,9.9,29.96,East,89,0.0,3.0,48,0.00,,,0.00,meteohub,2013-02-04 12:03:00,
2013-02-04 05:05:00,27.0,10.4,29.96,East,89,0.0,2.0,49,0.00,,,0.00,meteohub,2013-02-04 12:05:00,
2013-02-04 05:07:00,26.8,10.2,29.96,East,89,0.0,2.0,49,0.00,,,0.00,meteohub,2013-02-04 12:07:00,
2013-02-04 05:08:00,26.8,10.2,29.96,East,89,1.0,2.0,49,0.00,,,0.00,meteohub,2013-02-04 12:08:00,
2013-02-04 05:09:00,26.8,10.2,29.96,East,89,0.0,2.0,49,0.00,,,0.00,meteohub,2013-02-04 12:09:00,
2013-02-04 05:11:00,26.4,10.2,29.96,East,89,0.0,3.0,50,0.00,,,0.00,meteohub,2013-02-04 12:11:00,
2013-02-04 05:13:00,26.4,10.2,29.96,East,89,2.0,3.0,50,0.00,,,0.00,meteohub,2013-02-04 12:13:00,
2013-02-04 05:14:00,26.2,10.2,29.96,East,89,3.0,3.0,50,0.00,,,0.00,meteohub,2013-02-04 12:14:00,
2013-02-04 05:16:00,26.2,10.2,29.96,East,89,3.0,3.0,50,0.00,,,0.00,meteohub,2013-02-04 12:16:00,
2013-02-04 05:18:00,26.1,10.4,29.96,East,89,0.0,3.0,51,0.00,,,0.00,meteohub,2013-02-04 12:18:00,
2013-02-04 05:20:00,26.1,10.4,29.96,East,89,0.0,3.0,51,0.00,,,0.00,meteohub,2013-02-04 12:20:00,
2013-02-04 05:21:00,26.1,10.4,29.96,East,89,0.0,3.0,51,0.00,,,0.00,meteohub,2013-02-04 12:21:00,
2013-02-04 05:22:00,25.9,10.2,29.96,East,89,0.0,3.0,51,0.00,,,0.00,meteohub,2013-02-04 12:22:00,
2013-02-04 05:23:00,25.9,10.2,29.96,East,89,0.0,3.0,51,0.00,,,0.00,meteohub,2013-02-04 12:23:00,
2013-02-04 05:25:00,25.7,10.0,29.96,East,89,0.0,3.0,51,0.00,,,0.00,meteohub,2013-02-04 12:25:00,
2013-02-04 05:26:00,25.7,10.0,29.96,East,89,1.0,3.0,51,0.00,,,0.00,meteohub,2013-02-04 12:26:00,
2013-02-04 05:29:00,25.5,10.4,29.96,East,89,0.0,3.0,52,0.00,,,0.00,meteohub,2013-02-04 12:29:00,
2013-02-04 05:30:00,25.5,10.4,29.96,East,89,2.0,3.0,52,0.00,,,0.00,meteohub,2013-02-04 12:30:00,
2013-02-04 05:31:00,25.3,10.6,29.96,East,89,2.0,3.0,53,0.00,,,0.00,meteohub,2013-02-04 12:31:00,
2013-02-04 05:32:00,25.3,10.6,29.96,East,89,1.0,3.0,53,0.00,,,0.00,meteohub,2013-02-04 12:32:00,
2013-02-04 05:34:00,25.3,10.6,29.96,East,89,0.0,3.0,53,0.00,,,0.00,meteohub,2013-02-04 12:34:00,
2013-02-04 05:35:00,25.3,10.6,29.96,East,89,0.0,3.0,53,0.00,,,0.00,meteohub,2013-02-04 12:35:00,
2013-02-04 05:37:00,25.2,10.4,29.96,East,89,0.0,3.0,53,0.00,,,0.00,meteohub,2013-02-04 12:37:00,
2013-02-04 05:39:00,25.2,10.4,29.96,East,89,0.0,3.0,53,0.00,,,0.00,meteohub,2013-02-04 12:39:00,
2013-02-04 05:40:00,25.2,10.4,29.96,East,89,0.0,3.0,53,0.00,,,0.00,meteohub,2013-02-04 12:40:00,
2013-02-04 05:42:00,25.2,10.4,29.96,East,89,0.0,3.0,53,0.00,,,0.00,meteohub,2013-02-04 12:42:00,
2013-02-04 05:43:00,25.2,10.4,29.96,East,89,1.0,3.0,53,0.00,,,0.00,meteohub,2013-02-04 12:43:00,
2013-02-04 05:46:00,25.0,10.2,29.96,East,89,1.0,3.0,53,0.00,,,0.00,meteohub,2013-02-04 12:46:00,
2013-02-04 05:47:00,25.0,10.2,29.96,East,89,0.0,3.0,53,0.00,,,0.00,meteohub,2013-02-04 12:47:00,
2013-02-04 05:48:00,25.0,10.2,29.96,East,89,0.0,3.0,53,0.00,,,0.00,meteohub,2013-02-04 12:48:00,
2013-02-04 05:51:00,25.0,10.2,29.96,East,89,1.0,3.0,53,0.00,,,0.00,meteohub,2013-02-04 12:51:00,
2013-02-04 05:52:00,25.0,10.2,29.96,East,88,3.0,3.0,53,0.00,,,0.00,meteohub,2013-02-04 12:52:00,
2013-02-04 05:53:00,25.0,10.2,29.97,NNW,327,6.0,6.0,53,0.00,,,0.00,meteohub,2013-02-04 12:53:00,
2013-02-04 05:57:00,24.8,10.0,29.96,NW,321,0.0,9.0,53,0.00,,,0.00,meteohub,2013-02-04 12:57:00,
2013-02-04 05:58:00,24.8,10.0,29.96,NW,321,0.0,9.0,53,0.00,,,0.00,meteohub,2013-02-04 12:58:00,
2013-02-04 05:59:00,24.8,10.0,29.96,NW,309,2.0,9.0,53,0.00,,,0.00,meteohub,2013-02-04 12:59:00,
2013-02-04 06:01:00,24.8,10.0,29.96,NW,311,3.0,9.0,53,0.00,,,0.00,meteohub,2013-02-04 13:01:00,
2013-02-04 06:02:00,24.8,10.0,29.96,NW,311,0.0,9.0,53,0.00,,,0.00,meteohub,2013-02-04 13:02:00,
2013-02-04 06:03:00,24.8,10.0,29.96,NW,311,2.0,9.0,53,0.00,,,0.00,meteohub,2013-02-04 13:03:00,
2013-02-04 06:05:00,24.8,10.0,29.96,NW,311,0.0,9.0,53,0.00,,,0.00,meteohub,2013-02-04 13:05:00,
2013-02-04 06:07:00,24.8,10.0,29.96,NW,311,0.0,9.0,53,0.00,,,0.00,meteohub,2013-02-04 13:07:00,
2013-02-04 06:08:00,24.6,9.9,29.96,NW,311,0.0,9.0,53,0.00,,,0.00,meteohub,2013-02-04 13:08:00,
2013-02-04 06:10:00,24.6,9.9,29.96,NW,311,1.0,4.0,53,0.00,,,0.00,meteohub,2013-02-04 13:10:00,
2013-02-04 06:12:00,24.6,9.9,29.96,NW,311,3.0,4.0,53,0.00,,,0.00,meteohub,2013-02-04 13:12:00,
2013-02-04 06:13:00,24.6,9.9,29.96,NW,311,2.0,4.0,53,0.00,,,0.00,meteohub,2013-02-04 13:13:00,
2013-02-04 06:16:00,24.6,9.9,29.96,NW,311,0.0,4.0,53,0.00,,,0.00,meteohub,2013-02-04 13:16:00,
2013-02-04 06:17:00,24.6,9.9,29.96,NW,311,1.0,4.0,53,0.00,,,0.00,meteohub,2013-02-04 13:17:00,
2013-02-04 06:20:00,24.6,9.9,29.96,NW,311,0.0,4.0,53,0.00,,,0.00,meteohub,2013-02-04 13:20:00,
2013-02-04 06:21:00,24.6,9.9,29.96,NW,311,0.0,4.0,53,0.00,,,0.00,meteohub,2013-02-04 13:21:00,
2013-02-04 06:22:00,24.8,10.0,29.96,NW,311,0.0,4.0,53,0.00,,,0.00,meteohub,2013-02-04 13:22:00,
2013-02-04 06:23:00,24.8,10.0,29.96,NW,311,0.0,4.0,53,0.00,,,0.00,meteohub,2013-02-04 13:23:00,
2013-02-04 06:26:00,25.0,10.2,29.96,NW,311,0.0,3.0,53,0.00,,,0.00,meteohub,2013-02-04 13:26:00,
2013-02-04 06:27:00,24.8,10.0,29.96,NW,311,0.0,3.0,53,0.00,,,0.00,meteohub,2013-02-04 13:27:00,
2013-02-04 06:31:00,24.8,10.0,29.96,NW,311,0.0,1.0,53,0.00,,,0.00,meteohub,2013-02-04 13:31:00,
2013-02-04 06:32:00,24.8,10.0,29.96,NW,311,1.0,1.0,53,0.00,,,0.00,meteohub,2013-02-04 13:32:00,
2013-02-04 06:36:00,24.8,10.0,29.96,NW,311,1.0,2.0,53,0.00,,,0.00,meteohub,2013-02-04 13:36:00,
2013-02-04 06:37:00,24.8,10.0,29.96,NW,311,2.0,2.0,53,0.00,,,0.00,meteohub,2013-02-04 13:37:00,
2013-02-04 06:38:00,24.8,10.0,29.96,NW,311,3.0,3.0,53,0.00,,,0.00,meteohub,2013-02-04 13:38:00,
2013-02-04 06:39:00,25.0,10.2,29.96,NW,311,3.0,3.0,53,0.00,,,0.00,meteohub,2013-02-04 13:39:00,
2013-02-04 06:42:00,25.2,10.4,29.96,NW,311,1.0,4.0,53,0.00,,,0.00,meteohub,2013-02-04 13:42:00,
2013-02-04 06:43:00,25.0,10.2,29.96,NW,311,0.0,4.0,53,0.00,,,0.00,meteohub,2013-02-04 13:43:00,
2013-02-04 06:44:00,25.0,10.2,29.96,NW,311,1.0,4.0,53,0.00,,,0.00,meteohub,2013-02-04 13:44:00,
2013-02-04 06:45:00,25.0,10.2,29.96,NW,311,0.0,4.0,53,0.00,,,0.00,meteohub,2013-02-04 13:45:00,
2013-02-04 06:48:00,24.8,10.0,29.96,NW,311,1.0,4.0,53,0.00,,,0.00,meteohub,2013-02-04 13:48:00,
2013-02-04 06:49:00,24.8,10.0,29.96,NW,311,2.0,4.0,53,0.00,,,0.00,meteohub,2013-02-04 13:49:00,
2013-02-04 06:50:00,24.8,10.0,29.96,NW,311,2.0,4.0,53,0.00,,,0.00,meteohub,2013-02-04 13:50:00,
2013-02-04 06:51:00,24.8,10.0,29.96,NW,311,0.0,4.0,53,0.00,,,0.00,meteohub,2013-02-04 13:51:00,
2013-02-04 06:53:00,24.8,10.0,29.96,NW,311,0.0,4.0,53,0.00,,,0.00,meteohub,2013-02-04 13:53:00,
2013-02-04 06:55:00,24.8,10.6,29.96,NW,311,0.0,3.0,54,0.00,,,0.00,meteohub,2013-02-04 13:55:00,
2013-02-04 06:56:00,24.8,10.6,29.96,NW,311,0.0,3.0,54,0.00,,,0.00,meteohub,2013-02-04 13:56:00,
2013-02-04 06:57:00,24.8,10.6,29.96,NW,311,0.0,3.0,54,0.00,,,0.00,meteohub,2013-02-04 13:57:00,
2013-02-04 06:58:00,24.8,10.6,29.96,NW,311,0.0,3.0,54,0.00,,,0.00,meteohub,2013-02-04 13:58:00,
2013-02-04 07:00:00,24.6,10.4,29.96,NW,311,0.0,2.0,54,0.00,,,0.00,meteohub,2013-02-04 14:00:00,
2013-02-04 07:01:00,24.6,10.4,29.96,NW,311,0.0,2.0,54,0.00,,,0.00,meteohub,2013-02-04 14:01:00,
2013-02-04 07:03:00,24.6,10.8,29.96,NW,311,0.0,2.0,55,0.00,,,0.00,meteohub,2013-02-04 14:03:00,
2013-02-04 07:07:00,24.6,10.8,29.96,NW,311,0.0,2.0,55,0.00,,,0.00,meteohub,2013-02-04 14:07:00,
2013-02-04 07:09:00,24.6,10.8,29.96,NW,311,0.0,2.0,55,0.00,,,0.00,meteohub,2013-02-04 14:09:00,
2013-02-04 07:11:00,24.6,10.8,29.96,NW,311,0.0,0.0,55,0.00,,,0.00,meteohub,2013-02-04 14:11:00,
2013-02-04 07:12:00,24.6,10.8,29.96,NW,311,0.0,0.0,55,0.00,,,0.00,meteohub,2013-02-04 14:12:00,
2013-02-04 07:14:00,24.6,10.8,29.96,NW,311,0.0,0.0,55,0.00,,,0.00,meteohub,2013-02-04 14:14:00,
2013-02-04 07:15:00,24.6,10.8,29.96,NW,311,0.0,1.0,55,0.00,,,0.00,meteohub,2013-02-04 14:15:00,
2013-02-04 07:16:00,24.6,11.1,29.96,NW,311,0.0,1.0,56,0.00,,,0.00,meteohub,2013-02-04 14:16:00,
2013-02-04 07:17:00,24.6,11.1,29.96,NW,311,0.0,1.0,56,0.00,,,0.00,meteohub,2013-02-04 14:17:00,
2013-02-04 07:21:00,24.6,11.5,29.96,NW,311,2.0,2.0,57,0.00,,,0.00,meteohub,2013-02-04 14:21:00,
2013-02-04 07:23:00,24.6,11.5,29.96,NW,311,2.0,2.0,57,0.00,,,0.00,meteohub,2013-02-04 14:23:00,
2013-02-04 07:24:00,24.6,11.5,29.96,NW,311,0.0,2.0,57,0.00,,,0.00,meteohub,2013-02-04 14:24:00,
2013-02-04 07:25:00,24.6,11.5,29.96,NW,311,0.0,2.0,57,0.00,,,0.00,meteohub,2013-02-04 14:25:00,
2013-02-04 07:27:00,24.6,11.5,29.96,NW,311,0.0,3.0,57,0.00,,,0.00,meteohub,2013-02-04 14:27:00,
2013-02-04 07:29:00,24.6,11.5,29.96,NW,311,1.0,3.0,57,0.00,,,0.00,meteohub,2013-02-04 14:29:00,
2013-02-04 07:32:00,24.8,11.7,29.96,NW,311,1.0,3.0,57,0.00,,,0.00,meteohub,2013-02-04 14:32:00,
2013-02-04 07:33:00,25.0,11.8,29.96,NW,311,0.0,3.0,57,0.00,,,0.00,meteohub,2013-02-04 14:33:00,
2013-02-04 07:34:00,25.0,11.8,29.96,NW,311,0.0,3.0,57,0.00,,,0.00,meteohub,2013-02-04 14:34:00,
2013-02-04 07:40:00,25.2,11.7,29.96,NW,311,0.0,3.0,56,0.00,,,0.00,meteohub,2013-02-04 14:40:00,
2013-02-04 07:41:00,25.3,11.8,29.96,NW,311,1.0,2.0,56,0.00,,,0.00,meteohub,2013-02-04 14:41:00,
2013-02-04 07:42:00,25.3,11.8,29.96,NW,311,0.0,2.0,56,0.00,,,0.00,meteohub,2013-02-04 14:42:00,
2013-02-04 07:46:00,25.9,12.4,29.96,NW,311,0.0,2.0,56,0.00,,,0.00,meteohub,2013-02-04 14:46:00,
2013-02-04 07:47:00,25.9,12.4,29.96,NW,311,1.0,2.0,56,0.00,,,0.00,meteohub,2013-02-04 14:47:00,
2013-02-04 07:51:00,26.1,12.6,29.96,NW,311,3.0,3.0,56,0.00,,,0.00,meteohub,2013-02-04 14:51:00,
2013-02-04 07:52:00,26.2,12.2,29.96,NW,311,3.0,3.0,55,0.00,,,0.00,meteohub,2013-02-04 14:52:00,
2013-02-04 07:54:00,26.2,12.2,29.96,NW,311,0.0,2.0,55,0.00,,,0.00,meteohub,2013-02-04 14:54:00,
2013-02-04 07:56:00,26.4,12.4,29.96,NW,311,0.0,3.0,55,0.00,,,0.00,meteohub,2013-02-04 14:56:00,
2013-02-04 07:57:00,26.4,12.4,29.96,NW,311,2.0,3.0,55,0.00,,,0.00,meteohub,2013-02-04 14:57:00,
2013-02-04 07:59:00,26.8,12.7,29.96,NW,311,0.0,3.0,55,0.00,,,0.00,meteohub,2013-02-04 14:59:00,
2013-02-04 08:02:00,27.0,12.9,29.96,NW,311,0.0,3.0,55,0.00,,,0.00,meteohub,2013-02-04 15:02:00,
2013-02-04 08:03:00,27.0,13.3,29.96,NW,311,0.0,3.0,56,0.00,,,0.00,meteohub,2013-02-04 15:03:00,
2013-02-04 08:04:00,27.1,13.5,29.96,NW,311,0.0,3.0,56,0.00,,,0.00,meteohub,2013-02-04 15:04:00,
2013-02-04 08:06:00,27.1,13.1,29.96,NW,311,0.0,3.0,55,0.00,,,0.00,meteohub,2013-02-04 15:06:00,
2013-02-04 08:07:00,27.3,12.9,29.96,NW,311,0.0,3.0,54,0.00,,,0.00,meteohub,2013-02-04 15:07:00,
2013-02-04 08:09:00,27.7,12.7,29.96,NW,311,0.0,3.0,53,0.00,,,0.00,meteohub,2013-02-04 15:09:00,
2013-02-04 08:10:00,27.7,12.7,29.96,NW,311,0.0,3.0,53,0.00,,,0.00,meteohub,2013-02-04 15:10:00,
2013-02-04 08:13:00,27.9,12.9,29.96,NW,311,0.0,3.0,53,0.00,,,0.00,meteohub,2013-02-04 15:13:00,
2013-02-04 08:16:00,28.2,12.9,29.96,NW,311,1.0,2.0,52,0.00,,,0.00,meteohub,2013-02-04 15:16:00,
2013-02-04 08:17:00,28.4,12.6,29.96,NW,311,0.0,2.0,51,0.00,,,0.00,meteohub,2013-02-04 15:17:00,
2013-02-04 08:18:00,28.4,13.1,29.96,NW,311,0.0,2.0,52,0.00,,,0.00,meteohub,2013-02-04 15:18:00,
2013-02-04 08:21:00,28.8,12.4,29.96,NW,311,1.0,2.0,50,0.00,,,0.00,meteohub,2013-02-04 15:21:00,
2013-02-04 08:23:00,28.9,12.6,29.96,NW,311,2.0,2.0,50,0.00,,,0.00,meteohub,2013-02-04 15:23:00,
2013-02-04 08:24:00,29.1,12.7,29.96,NW,311,1.0,2.0,50,0.00,,,0.00,meteohub,2013-02-04 15:24:00,
2013-02-04 08:26:00,29.3,12.6,29.96,NW,311,1.0,4.0,49,0.00,,,0.00,meteohub,2013-02-04 15:26:00,
2013-02-04 08:27:00,29.5,12.7,29.96,NW,311,2.0,4.0,49,0.00,,,0.00,meteohub,2013-02-04 15:27:00,
2013-02-04 08:30:00,29.8,13.5,29.96,NNW,346,3.0,4.0,50,0.00,,,0.00,meteohub,2013-02-04 15:30:00,
2013-02-04 08:31:00,29.8,13.5,29.96,NNW,346,3.0,4.0,50,0.00,,,0.00,meteohub,2013-02-04 15:31:00,
2013-02-04 08:32:00,30.0,13.6,29.96,North,5,0.0,4.0,50,0.00,,,0.00,meteohub,2013-02-04 15:32:00,
2013-02-04 08:36:00,30.6,13.6,29.96,North,5,0.0,4.0,49,0.00,,,0.00,meteohub,2013-02-04 15:36:00,
2013-02-04 08:37:00,30.6,13.6,29.96,North,5,0.0,4.0,49,0.00,,,0.00,meteohub,2013-02-04 15:37:00,
2013-02-04 08:38:00,30.6,13.3,29.96,North,5,2.0,4.0,48,0.00,,,0.00,meteohub,2013-02-04 15:38:00,
2013-02-04 08:43:00,30.9,14.0,29.96,WNW,300,2.0,4.0,49,0.00,,,0.00,meteohub,2013-02-04 15:43:00,
2013-02-04 08:44:00,30.9,14.0,29.96,WNW,300,0.0,4.0,49,0.00,,,0.00,meteohub,2013-02-04 15:44:00,
2013-02-04 08:45:00,30.9,14.0,29.96,WNW,300,0.0,4.0,49,0.00,,,0.00,meteohub,2013-02-04 15:45:00,
2013-02-04 08:49:00,31.3,13.5,29.96,WNW,300,0.0,4.0,47,0.00,,,0.00,meteohub,2013-02-04 15:49:00,
2013-02-04 08:50:00,31.3,12.9,29.96,WNW,300,0.0,4.0,46,0.00,,,0.00,meteohub,2013-02-04 15:50:00,
2013-02-04 08:51:00,31.5,13.1,29.96,WNW,300,0.0,3.0,46,0.00,,,0.00,meteohub,2013-02-04 15:51:00,
2013-02-04 08:56:00,31.6,13.3,29.96,WNW,300,2.0,3.0,46,0.00,,,0.00,meteohub,2013-02-04 15:56:00,
2013-02-04 08:57:00,31.8,13.5,29.96,WNW,300,3.0,3.0,46,0.00,,,0.00,meteohub,2013-02-04 15:57:00,
2013-02-04 08:58:00,31.8,13.5,29.96,WNW,300,3.0,3.0,46,0.00,,,0.00,meteohub,2013-02-04 15:58:00,
2013-02-04 09:02:00,32.2,14.2,29.95,WNW,291,3.0,5.0,47,0.00,,,0.00,meteohub,2013-02-04 16:02:00,
2013-02-04 09:04:00,32.2,14.2,29.96,WNW,291,1.0,5.0,47,0.00,,,0.00,meteohub,2013-02-04 16:04:00,
2013-02-04 09:07:00,32.4,14.4,29.96,ENE,66,0.0,5.0,47,0.00,,,0.00,meteohub,2013-02-04 16:07:00,
2013-02-04 09:09:00,32.5,15.1,29.96,ENE,66,0.0,5.0,48,0.00,,,0.00,meteohub,2013-02-04 16:09:00,
2013-02-04 09:10:00,32.5,15.1,29.96,ENE,66,0.0,5.0,48,0.00,,,0.00,meteohub,2013-02-04 16:10:00,
2013-02-04 09:13:00,32.7,14.7,29.95,SE,138,1.0,5.0,47,0.00,,,0.00,meteohub,2013-02-04 16:13:00,
2013-02-04 09:15:00,32.9,14.4,29.95,SE,138,0.0,5.0,46,0.00,,,0.00,meteohub,2013-02-04 16:15:00,
2013-02-04 09:16:00,32.9,14.4,29.95,SE,138,4.0,4.0,46,0.00,,,0.00,meteohub,2013-02-04 16:16:00,
2013-02-04 09:21:00,33.3,14.7,29.95,SE,139,2.0,4.0,46,0.00,,,0.00,meteohub,2013-02-04 16:21:00,
2013-02-04 09:22:00,33.3,15.3,29.95,SE,138,1.0,4.0,47,0.00,,,0.00,meteohub,2013-02-04 16:22:00,
2013-02-04 09:24:00,33.4,15.8,29.95,East,92,7.0,7.0,48,0.00,,,0.00,meteohub,2013-02-04 16:24:00,
2013-02-04 09:27:00,33.4,14.9,29.95,ESE,104,5.0,6.0,46,0.00,,,0.00,meteohub,2013-02-04 16:27:00,
2013-02-04 09:28:00,33.4,14.9,29.95,East,95,5.0,6.0,46,0.00,,,0.00,meteohub,2013-02-04 16:28:00,
2013-02-04 09:29:00,33.4,14.4,29.95,East,94,4.0,6.0,45,0.00,,,0.00,meteohub,2013-02-04 16:29:00,
2013-02-04 09:32:00,33.6,14.5,29.95,East,94,0.0,7.0,45,0.00,,,0.00,meteohub,2013-02-04 16:32:00,
2013-02-04 09:34:00,33.8,14.7,29.95,SE,144,4.0,7.0,45,0.00,,,0.00,meteohub,2013-02-04 16:34:00,
2013-02-04 09:35:00,34.0,15.4,29.94,ESE,110,5.0,7.0,46,0.00,,,0.00,meteohub,2013-02-04 16:35:00,
2013-02-04 09:37:00,34.2,15.1,29.94,SSE,167,4.0,7.0,45,0.00,,,0.00,meteohub,2013-02-04 16:37:00,
2013-02-04 09:39:00,34.3,15.6,29.93,SE,124,5.0,7.0,46,0.00,,,0.00,meteohub,2013-02-04 16:39:00,
2013-02-04 09:40:00,34.5,15.4,29.94,SW,229,9.0,9.0,45,0.00,,,0.00,meteohub,2013-02-04 16:40:00,
2013-02-04 09:41:00,34.9,15.6,29.94,South,182,5.0,6.0,45,0.00,,,0.00,meteohub,2013-02-04 16:41:00,
2013-02-04 09:44:00,35.1,14.9,29.94,ENE,59,0.0,6.0,43,0.00,,,0.00,meteohub,2013-02-04 16:44:00,
2013-02-04 09:45:00,35.2,14.4,29.93,SSW,192,6.0,9.0,42,0.00,,,0.00,meteohub,2013-02-04 16:45:00,
2013-02-04 09:46:00,35.2,14.4,29.93,South,173,6.0,9.0,42,0.00,,,0.00,meteohub,2013-02-04 16:46:00,
2013-02-04 09:48:00,35.4,14.5,29.93,West,279,2.0,9.0,42,0.00,,,0.00,meteohub,2013-02-04 16:48:00,
2013-02-04 09:50:00,35.8,14.9,29.93,SW,232,1.0,10.0,42,0.00,,,0.00,meteohub,2013-02-04 16:50:00,
2013-02-04 09:53:00,36.1,14.7,29.93,SSE,153,0.0,10.0,41,0.00,,,0.00,meteohub,2013-02-04 16:53:00,
2013-02-04 09:54:00,36.1,14.7,29.93,NNW,340,0.0,10.0,41,0.00,,,0.00,meteohub,2013-02-04 16:54:00,
2013-02-04 09:57:00,36.3,14.4,29.93,NNW,343,0.0,10.0,40,0.00,,,0.00,meteohub,2013-02-04 16:57:00,
2013-02-04 09:59:00,36.9,13.6,29.93,North,355,8.0,10.0,38,0.00,,,0.00,meteohub,2013-02-04 16:59:00,
2013-02-04 10:00:00,37.4,12.2,29.93,NW,313,11.0,11.0,35,0.00,,,0.00,meteohub,2013-02-04 17:00:00,
2013-02-04 10:02:00,38.7,9.9,29.93,NNW,338,17.0,17.0,30,0.00,,,0.00,meteohub,2013-02-04 17:02:00,
2013-02-04 10:04:00,40.8,9.3,29.93,NW,315,14.0,17.0,27,0.00,,,0.00,meteohub,2013-02-04 17:04:00,
2013-02-04 10:05:00,41.5,10.0,29.93,NNW,335,11.0,20.0,27,0.00,,,0.00,meteohub,2013-02-04 17:05:00,
2013-02-04 10:06:00,42.1,10.6,29.93,NNW,338,9.0,20.0,27,0.00,,,0.00,meteohub,2013-02-04 17:06:00,
2013-02-04 10:09:00,44.1,10.4,29.92,NW,320,13.0,20.0,25,0.00,,,0.00,meteohub,2013-02-04 17:09:00,
2013-02-04 10:10:00,44.2,9.7,29.92,NW,325,7.0,22.0,24,0.00,,,0.00,meteohub,2013-02-04 17:10:00,
2013-02-04 10:13:00,45.5,9.9,29.92,North,355,12.0,22.0,23,0.00,,,0.00,meteohub,2013-02-04 17:13:00,
2013-02-04 10:15:00,46.0,10.2,29.92,NNW,333,11.0,22.0,23,0.00,,,0.00,meteohub,2013-02-04 17:15:00,
2013-02-04 10:16:00,46.4,9.7,29.92,NNW,335,8.0,22.0,22,0.00,,,0.00,meteohub,2013-02-04 17:16:00,
2013-02-04 10:18:00,46.8,8.8,29.92,NNW,336,11.0,22.0,21,0.00,,,0.00,meteohub,2013-02-04 17:18:00,
2013-02-04 10:20:00,47.1,9.1,29.92,NNW,347,10.0,21.0,21,0.00,,,0.00,meteohub,2013-02-04 17:20:00,
2013-02-04 10:22:00,47.5,8.4,29.92,NNW,345,12.0,21.0,20,0.00,,,0.00,meteohub,2013-02-04 17:22:00,
2013-02-04 10:23:00,47.7,8.6,29.92,North,355,13.0,21.0,20,0.00,,,0.00,meteohub,2013-02-04 17:23:00,
2013-02-04 10:24:00,47.8,8.6,29.92,NNW,327,8.0,21.0,20,0.00,,,0.00,meteohub,2013-02-04 17:24:00,
2013-02-04 10:25:00,48.0,8.8,29.92,NNW,332,8.0,19.0,20,0.00,,,0.00,meteohub,2013-02-04 17:25:00,
2013-02-04 10:28:00,48.4,10.2,29.93,NNW,348,12.0,19.0,21,0.00,,,0.00,meteohub,2013-02-04 17:28:00,
2013-02-04 10:31:00,48.9,9.5,29.92,NNW,348,9.0,19.0,20,0.00,,,0.00,meteohub,2013-02-04 17:31:00,
2013-02-04 10:33:00,49.5,10.0,29.92,NW,318,8.0,19.0,20,0.00,,,0.00,meteohub,2013-02-04 17:33:00,
2013-02-04 10:35:00,49.8,10.4,29.92,NNW,342,9.0,19.0,20,0.00,,,0.00,meteohub,2013-02-04 17:35:00,
2013-02-04 10:37:00,50.2,9.5,29.92,NW,324,6.0,16.0,19,0.00,,,0.00,meteohub,2013-02-04 17:37:00,
2013-02-04 10:38:00,50.4,10.8,29.92,NW,319,11.0,16.0,20,0.00,,,0.00,meteohub,2013-02-04 17:38:00,
2013-02-04 10:41:00,51.1,9.0,29.92,NNW,346,7.0,14.0,18,0.00,,,0.00,meteohub,2013-02-04 17:41:00,
2013-02-04 10:43:00,51.4,8.1,29.92,NW,304,8.0,14.0,17,0.00,,,0.00,meteohub,2013-02-04 17:43:00,
2013-02-04 10:45:00,52.0,9.7,29.91,NW,306,2.0,15.0,18,0.00,,,0.00,meteohub,2013-02-04 17:45:00,
2013-02-04 10:47:00,52.3,8.8,29.91,NNW,331,5.0,15.0,17,0.00,,,0.00,meteohub,2013-02-04 17:47:00,
2013-02-04 10:48:00,52.7,9.1,29.91,NW,315,9.0,15.0,17,0.00,,,0.00,meteohub,2013-02-04 17:48:00,
2013-02-04 10:50:00,53.1,8.1,29.91,NW,306,9.0,15.0,16,0.00,,,0.00,meteohub,2013-02-04 17:50:00,
2013-02-04 10:52:00,53.4,7.0,29.91,NNW,344,6.0,17.0,15,0.00,,,0.00,meteohub,2013-02-04 17:52:00,
2013-02-04 10:53:00,53.4,7.0,29.91,NW,313,11.0,17.0,15,0.00,,,0.00,meteohub,2013-02-04 17:53:00,
2013-02-04 10:54:00,53.4,8.2,29.91,NW,306,14.0,17.0,16,0.00,,,0.00,meteohub,2013-02-04 17:54:00,
2013-02-04 10:55:00,53.2,8.2,29.91,NW,318,13.0,17.0,16,0.00,,,0.00,meteohub,2013-02-04 17:55:00,
2013-02-04 10:57:00,53.2,8.2,29.91,NW,322,7.0,20.0,16,0.00,,,0.00,meteohub,2013-02-04 17:57:00,
2013-02-04 11:00:00,53.1,6.6,29.91,NW,314,7.0,20.0,15,0.00,,,0.00,meteohub,2013-02-04 18:00:00,
2013-02-04 11:01:00,53.1,8.1,29.91,NW,323,10.0,20.0,16,0.00,,,0.00,meteohub,2013-02-04 18:01:00,
2013-02-04 11:02:00,53.1,6.6,29.91,NNW,330,15.0,20.0,15,0.00,,,0.00,meteohub,2013-02-04 18:02:00,
2013-02-04 11:04:00,53.2,8.2,29.91,NW,321,10.0,20.0,16,0.00,,,0.00,meteohub,2013-02-04 18:04:00,
2013-02-04 11:06:00,53.2,6.8,29.91,NW,321,13.0,20.0,15,0.00,,,0.00,meteohub,2013-02-04 18:06:00,
2013-02-04 11:07:00,53.2,6.8,29.91,NNW,328,3.0,20.0,15,0.00,,,0.00,meteohub,2013-02-04 18:07:00,
2013-02-04 11:09:00,53.4,7.0,29.91,NNW,330,3.0,20.0,15,0.00,,,0.00,meteohub,2013-02-04 18:09:00,
2013-02-04 11:12:00,53.4,7.0,29.91,NNW,341,9.0,17.0,15,0.00,,,0.00,meteohub,2013-02-04 18:12:00,
2013-02-04 11:15:00,53.4,7.0,29.92,NW,317,6.0,17.0,15,0.00,,,0.00,meteohub,2013-02-04 18:15:00,
2013-02-04 11:16:00,53.4,7.0,29.91,NNW,340,8.0,17.0,15,0.00,,,0.00,meteohub,2013-02-04 18:16:00,
2013-02-04 11:18:00,53.2,6.8,29.91,NNW,331,11.0,17.0,15,0.00,,,0.00,meteohub,2013-02-04 18:18:00,
2013-02-04 11:20:00,53.1,6.6,29.91,NNW,335,11.0,17.0,15,0.00,,,0.00,meteohub,2013-02-04 18:20:00,
2013-02-04 11:21:00,52.9,6.4,29.91,North,0,8.0,17.0,15,0.00,,,0.00,meteohub,2013-02-04 18:21:00,
2013-02-04 11:26:00,52.2,7.3,29.91,NNW,341,7.0,18.0,16,0.00,,,0.00,meteohub,2013-02-04 18:26:00,
2013-02-04 11:27:00,52.0,5.7,29.91,NW,315,5.0,18.0,15,0.00,,,0.00,meteohub,2013-02-04 18:27:00,
2013-02-04 11:28:00,51.8,7.0,29.91,NNW,336,8.0,18.0,16,0.00,,,0.00,meteohub,2013-02-04 18:28:00,
2013-02-04 11:31:00,51.4,6.8,29.91,North,355,19.0,19.0,16,0.00,,,0.00,meteohub,2013-02-04 18:31:00,
2013-02-04 11:32:00,51.4,6.8,29.90,NW,318,8.0,18.0,16,0.00,,,0.00,meteohub,2013-02-04 18:32:00,
2013-02-04 11:34:00,51.3,6.6,29.90,NW,323,8.0,18.0,16,0.00,,,0.00,meteohub,2013-02-04 18:34:00,
2013-02-04 11:35:00,51.3,6.6,29.90,NNW,331,7.0,18.0,16,0.00,,,0.00,meteohub,2013-02-04 18:35:00,
2013-02-04 11:36:00,51.3,6.6,29.90,NW,323,14.0,22.0,16,0.00,,,0.00,meteohub,2013-02-04 18:36:00,
2013-02-04 11:37:00,51.3,6.6,29.90,NW,323,13.0,22.0,16,0.00,,,0.00,meteohub,2013-02-04 18:37:00,
2013-02-04 11:41:00,51.3,6.6,29.91,NNW,329,2.0,22.0,16,0.00,,,0.00,meteohub,2013-02-04 18:41:00,
2013-02-04 11:42:00,51.3,7.9,29.91,West,261,4.0,22.0,17,0.00,,,0.00,meteohub,2013-02-04 18:42:00,
2013-02-04 11:45:00,51.3,10.4,29.90,SW,214,7.0,22.0,19,0.00,,,0.00,meteohub,2013-02-04 18:45:00,
2013-02-04 11:47:00,51.4,11.7,29.91,SW,226,6.0,22.0,20,0.00,,,0.00,meteohub,2013-02-04 18:47:00,
2013-02-04 11:50:00,51.4,10.6,29.91,WSW,257,4.0,22.0,19,0.00,,,0.00,meteohub,2013-02-04 18:50:00,
2013-02-04 11:52:00,51.4,10.6,29.91,SSW,196,4.0,20.0,19,0.00,,,0.00,meteohub,2013-02-04 18:52:00,
2013-02-04 11:54:00,51.3,9.1,29.90,SSW,207,2.0,20.0,18,0.00,,,0.00,meteohub,2013-02-04 18:54:00,
2013-02-04 11:55:00,51.1,9.0,29.91,SW,227,2.0,9.0,18,0.00,,,0.00,meteohub,2013-02-04 18:55:00,
2013-02-04 11:57:00,50.7,9.9,29.91,WSW,238,2.0,9.0,19,0.00,,,0.00,meteohub,2013-02-04 18:57:00,
2013-02-04 12:00:00,50.4,9.7,29.91,WSW,246,0.0,9.0,19,0.00,,,0.00,meteohub,2013-02-04 19:00:00,
2013-02-04 12:02:00,50.4,9.7,29.91,West,279,1.0,7.0,19,0.00,,,0.00,meteohub,2013-02-04 19:02:00,
2013-02-04 12:03:00,50.2,10.6,29.90,NW,318,1.0,7.0,20,0.00,,,0.00,meteohub,2013-02-04 19:03:00,
2013-02-04 12:05:00,50.2,10.6,29.90,NW,318,0.0,7.0,20,0.00,,,0.00,meteohub,2013-02-04 19:05:00,
2013-02-04 12:07:00,50.2,10.6,29.90,NW,318,4.0,7.0,20,0.00,,,0.00,meteohub,2013-02-04 19:07:00,
2013-02-04 12:08:00,50.2,10.6,29.91,NW,311,2.0,7.0,20,0.00,,,0.00,meteohub,2013-02-04 19:08:00,
2013-02-04 12:10:00,50.2,10.6,29.90,SW,232,2.0,7.0,20,0.00,,,0.00,meteohub,2013-02-04 19:10:00,
2013-02-04 12:12:00,50.4,9.7,29.90,South,178,2.0,7.0,19,0.00,,,0.00,meteohub,2013-02-04 19:12:00,
2013-02-04 12:14:00,50.5,8.6,29.90,NNW,327,2.0,7.0,18,0.00,,,0.00,meteohub,2013-02-04 19:14:00,
2013-02-04 12:18:00,51.3,9.1,29.89,West,267,2.0,7.0,18,0.00,,,0.00,meteohub,2013-02-04 19:18:00,
2013-02-04 12:19:00,51.6,9.5,29.89,WNW,301,4.0,7.0,18,0.00,,,0.00,meteohub,2013-02-04 19:19:00,
2013-02-04 12:20:00,52.0,9.7,29.89,NNW,346,4.0,7.0,18,0.00,,,0.00,meteohub,2013-02-04 19:20:00,
2013-02-04 12:23:00,52.3,7.5,29.89,NNW,328,20.0,20.0,16,0.00,,,0.00,meteohub,2013-02-04 19:23:00,
2013-02-04 12:24:00,52.3,7.5,29.88,NW,322,12.0,12.0,16,0.00,,,0.00,meteohub,2013-02-04 19:24:00,
2013-02-04 12:25:00,52.3,7.5,29.88,West,269,9.0,16.0,16,0.00,,,0.00,meteohub,2013-02-04 19:25:00,
2013-02-04 12:29:00,52.2,8.6,29.88,NNW,331,7.0,16.0,17,0.00,,,0.00,meteohub,2013-02-04 19:29:00,
2013-02-04 12:30:00,52.2,8.6,29.88,NW,317,11.0,16.0,17,0.00,,,0.00,meteohub,2013-02-04 19:30:00,
2013-02-04 12:31:00,52.2,7.3,29.88,WNW,294,11.0,23.0,16,0.00,,,0.00,meteohub,2013-02-04 19:31:00,
2013-02-04 12:35:00,52.2,7.3,29.88,West,281,10.0,23.0,16,0.00,,,0.00,meteohub,2013-02-04 19:35:00,
2013-02-04 12:36:00,52.0,5.7,29.88,West,267,12.0,23.0,15,0.00,,,0.00,meteohub,2013-02-04 19:36:00,
2013-02-04 12:41:00,52.2,7.3,29.88,WNW,292,3.0,19.0,16,0.00,,,0.00,meteohub,2013-02-04 19:41:00,
2013-02-04 12:42:00,52.2,7.3,29.88,WNW,290,6.0,19.0,16,0.00,,,0.00,meteohub,2013-02-04 19:42:00,
2013-02-04 12:43:00,52.3,7.5,29.88,WSW,239,7.0,19.0,16,0.00,,,0.00,meteohub,2013-02-04 19:43:00,
2013-02-04 12:46:00,52.7,7.7,29.88,SW,221,6.0,18.0,16,0.00,,,0.00,meteohub,2013-02-04 19:46:00,
2013-02-04 12:47:00,52.7,7.7,29.88,WSW,239,5.0,18.0,16,0.00,,,0.00,meteohub,2013-02-04 19:47:00,
2013-02-04 12:48:00,52.9,7.9,29.88,WSW,250,7.0,18.0,16,0.00,,,0.00,meteohub,2013-02-04 19:48:00,
2013-02-04 12:50:00,52.9,7.9,29.88,WSW,250,6.0,15.0,16,0.00,,,0.00,meteohub,2013-02-04 19:50:00,
2013-02-04 12:52:00,53.1,8.1,29.88,NW,324,12.0,15.0,16,0.00,,,0.00,meteohub,2013-02-04 19:52:00,
2013-02-04 12:53:00,53.1,6.6,29.88,WNW,298,11.0,15.0,15,0.00,,,0.00,meteohub,2013-02-04 19:53:00,
2013-02-04 12:55:00,53.1,6.6,29.88,WSW,248,7.0,15.0,15,0.00,,,0.00,meteohub,2013-02-04 19:55:00,
2013-02-04 12:58:00,53.2,6.8,29.87,NW,304,11.0,15.0,15,0.00,,,0.00,meteohub,2013-02-04 19:58:00,
2013-02-04 13:00:00,53.2,8.2,29.87,NW,314,9.0,21.0,16,0.00,,,0.00,meteohub,2013-02-04 20:00:00,
2013-02-04 13:01:00,53.1,6.6,29.87,West,266,7.0,21.0,15,0.00,,,0.00,meteohub,2013-02-04 20:01:00,
2013-02-04 13:05:00,52.9,7.9,29.87,NW,304,10.0,22.0,16,0.00,,,0.00,meteohub,2013-02-04 20:05:00,
2013-02-04 13:06:00,52.9,7.9,29.87,WNW,290,13.0,22.0,16,0.00,,,0.00,meteohub,2013-02-04 20:06:00,
2013-02-04 13:08:00,52.9,7.9,29.87,NW,324,10.0,22.0,16,0.00,,,0.00,meteohub,2013-02-04 20:08:00,
2013-02-04 13:10:00,52.9,7.9,29.86,NNW,336,17.0,22.0,16,0.00,,,0.00,meteohub,2013-02-04 20:10:00,
2013-02-04 13:11:00,52.9,7.9,29.86,NW,319,15.0,22.0,16,0.00,,,0.00,meteohub,2013-02-04 20:11:00,
2013-02-04 13:12:00,52.9,7.9,29.86,North,349,14.0,22.0,16,0.00,,,0.00,meteohub,2013-02-04 20:12:00,
2013-02-04 13:14:00,52.9,7.9,29.86,NNW,344,10.0,22.0,16,0.00,,,0.00,meteohub,2013-02-04 20:14:00,
2013-02-04 13:16:00,52.9,7.9,29.86,West,272,14.0,25.0,16,0.00,,,0.00,meteohub,2013-02-04 20:16:00,
2013-02-04 13:18:00,52.9,7.9,29.86,NNW,341,14.0,25.0,16,0.00,,,0.00,meteohub,2013-02-04 20:18:00,
2013-02-04 13:19:00,52.9,7.9,29.86,WNW,289,17.0,25.0,16,0.00,,,0.00,meteohub,2013-02-04 20:19:00,
2013-02-04 13:22:00,52.9,7.9,29.86,West,273,11.0,27.0,16,0.00,,,0.00,meteohub,2013-02-04 20:22:00,
2013-02-04 13:24:00,52.7,7.7,29.86,West,271,13.0,27.0,16,0.00,,,0.00,meteohub,2013-02-04 20:24:00,
2013-02-04 13:25:00,52.7,7.7,29.86,WSW,244,20.0,27.0,16,0.00,,,0.00,meteohub,2013-02-04 20:25:00,
2013-02-04 13:27:00,52.7,7.7,29.86,NNW,336,15.0,27.0,16,0.00,,,0.00,meteohub,2013-02-04 20:27:00,
2013-02-04 13:29:00,52.5,6.3,29.86,WNW,284,17.0,27.0,15,0.00,,,0.00,meteohub,2013-02-04 20:29:00,
2013-02-04 13:31:00,52.3,6.1,29.86,NW,306,15.0,27.0,15,0.00,,,0.00,meteohub,2013-02-04 20:31:00,
2013-02-04 13:32:00,52.3,6.1,29.85,WNW,287,20.0,27.0,15,0.00,,,0.00,meteohub,2013-02-04 20:32:00,
2013-02-04 13:34:00,52.2,5.9,29.85,West,279,9.0,27.0,15,0.00,,,0.00,meteohub,2013-02-04 20:34:00,
2013-02-04 13:36:00,52.2,5.9,29.85,WNW,299,14.0,27.0,15,0.00,,,0.00,meteohub,2013-02-04 20:36:00,
2013-02-04 13:37:00,52.0,5.7,29.85,WNW,296,9.0,27.0,15,0.00,,,0.00,meteohub,2013-02-04 20:37:00,
2013-02-04 13:39:00,52.0,5.7,29.85,WNW,292,9.0,27.0,15,0.00,,,0.00,meteohub,2013-02-04 20:39:00,
2013-02-04 13:40:00,52.0,5.7,29.85,WNW,298,17.0,27.0,15,0.00,,,0.00,meteohub,2013-02-04 20:40:00,
2013-02-04 13:43:00,51.8,5.5,29.85,WNW,290,8.0,23.0,15,0.00,,,0.00,meteohub,2013-02-04 20:43:00,
2013-02-04 13:44:00,51.8,5.5,29.85,NW,306,11.0,23.0,15,0.00,,,0.00,meteohub,2013-02-04 20:44:00,
2013-02-04 13:45:00,51.8,5.5,29.85,WNW,290,10.0,25.0,15,0.00,,,0.00,meteohub,2013-02-04 20:45:00,
2013-02-04 13:47:00,51.6,5.4,29.85,NNW,339,11.0,25.0,15,0.00,,,0.00,meteohub,2013-02-04 20:47:00,
2013-02-04 13:49:00,51.6,5.4,29.85,NW,310,10.0,25.0,15,0.00,,,0.00,meteohub,2013-02-04 20:49:00,
2013-02-04 13:50:00,51.6,5.4,29.85,NW,326,21.0,25.0,15,0.00,,,0.00,meteohub,2013-02-04 20:50:00,
2013-02-04 13:51:00,51.6,5.4,29.85,NW,304,21.0,25.0,15,0.00,,,0.00,meteohub,2013-02-04 20:51:00,
2013-02-04 13:52:00,51.6,6.8,29.85,WNW,297,7.0,25.0,16,0.00,,,0.00,meteohub,2013-02-04 20:52:00,
2013-02-04 13:54:00,51.6,5.4,29.85,WNW,282,12.0,25.0,15,0.00,,,0.00,meteohub,2013-02-04 20:54:00,
2013-02-04 13:56:00,51.4,6.8,29.84,NW,309,17.0,25.0,16,0.00,,,0.00,meteohub,2013-02-04 20:56:00,
2013-02-04 13:57:00,51.4,6.8,29.84,WNW,282,16.0,25.0,16,0.00,,,0.00,meteohub,2013-02-04 20:57:00,
2013-02-04 13:59:00,51.4,6.8,29.85,WNW,300,15.0,25.0,16,0.00,,,0.00,meteohub,2013-02-04 20:59:00,
2013-02-04 14:00:00,51.4,6.8,29.85,WNW,290,12.0,25.0,16,0.00,,,0.00,meteohub,2013-02-04 21:00:00,
2013-02-04 14:01:00,51.4,5.4,29.85,WNW,294,15.0,24.0,15,0.00,,,0.00,meteohub,2013-02-04 21:01:00,
2013-02-04 14:04:00,51.3,5.2,29.85,West,278,8.0,24.0,15,0.00,,,0.00,meteohub,2013-02-04 21:04:00,
2013-02-04 14:05:00,51.3,5.2,29.85,West,280,13.0,24.0,15,0.00,,,0.00,meteohub,2013-02-04 21:05:00,
2013-02-04 14:06:00,51.3,6.6,29.85,WNW,294,16.0,24.0,16,0.00,,,0.00,meteohub,2013-02-04 21:06:00,
2013-02-04 14:07:00,51.3,6.6,29.84,NW,318,18.0,24.0,16,0.00,,,0.00,meteohub,2013-02-04 21:07:00,
2013-02-04 14:10:00,51.3,5.2,29.84,NW,307,14.0,24.0,15,0.00,,,0.00,meteohub,2013-02-04 21:10:00,
2013-02-04 14:11:00,51.1,5.0,29.84,WNW,282,19.0,24.0,15,0.00,,,0.00,meteohub,2013-02-04 21:11:00,
2013-02-04 14:13:00,51.1,5.0,29.84,NW,304,14.0,24.0,15,0.00,,,0.00,meteohub,2013-02-04 21:13:00,
2013-02-04 14:16:00,51.1,5.0,29.84,West,265,10.0,25.0,15,0.00,,,0.00,meteohub,2013-02-04 21:16:00,
2013-02-04 14:17:00,51.1,5.0,29.84,West,269,14.0,25.0,15,0.00,,,0.00,meteohub,2013-02-04 21:17:00,
2013-02-04 14:18:00,51.1,5.0,29.84,North,355,18.0,25.0,15,0.00,,,0.00,meteohub,2013-02-04 21:18:00,
2013-02-04 14:21:00,51.1,5.0,29.84,NW,320,17.0,26.0,15,0.00,,,0.00,meteohub,2013-02-04 21:21:00,
2013-02-04 14:22:00,50.9,4.8,29.84,WNW,296,13.0,26.0,15,0.00,,,0.00,meteohub,2013-02-04 21:22:00,
2013-02-04 14:23:00,50.9,4.8,29.84,NNW,345,11.0,26.0,15,0.00,,,0.00,meteohub,2013-02-04 21:23:00,
2013-02-04 14:25:00,50.7,4.6,29.84,NNW,327,13.0,26.0,15,0.00,,,0.00,meteohub,2013-02-04 21:25:00,
2013-02-04 14:27:00,50.7,6.1,29.84,NW,314,18.0,26.0,16,0.00,,,0.00,meteohub,2013-02-04 21:27:00,
2013-02-04 14:29:00,50.7,4.6,29.84,West,270,10.0,26.0,15,0.00,,,0.00,meteohub,2013-02-04 21:29:00,
2013-02-04 14:31:00,50.5,4.6,29.84,WNW,288,16.0,26.0,15,0.00,,,0.00,meteohub,2013-02-04 21:31:00,
2013-02-04 14:33:00,50.5,4.6,29.85,West,274,21.0,26.0,15,0.00,,,0.00,meteohub,2013-02-04 21:33:00,
2013-02-04 14:35:00,50.5,4.6,29.85,WNW,295,29.0,29.0,15,0.00,,,0.00,meteohub,2013-02-04 21:35:00,
2013-02-04 14:36:00,50.5,4.6,29.85,NW,311,11.0,26.0,15,0.00,,,0.00,meteohub,2013-02-04 21:36:00,
2013-02-04 14:37:00,50.5,3.0,29.85,WNW,298,13.0,26.0,14,0.00,,,0.00,meteohub,2013-02-04 21:37:00,
2013-02-04 14:39:00,50.5,3.0,29.84,NW,307,17.0,26.0,14,0.00,,,0.00,meteohub,2013-02-04 21:39:00,
2013-02-04 14:41:00,50.5,4.6,29.85,NW,318,17.0,29.0,15,0.00,,,0.00,meteohub,2013-02-04 21:41:00,
2013-02-04 14:43:00,50.5,3.0,29.85,WNW,289,19.0,29.0,14,0.00,,,0.00,meteohub,2013-02-04 21:43:00,
2013-02-04 14:44:00,50.5,4.6,29.85,NW,306,26.0,29.0,15,0.00,,,0.00,meteohub,2013-02-04 21:44:00,
2013-02-04 14:48:00,50.5,4.6,29.85,NNW,333,13.0,29.0,15,0.00,,,0.00,meteohub,2013-02-04 21:48:00,
2013-02-04 14:49:00,50.5,3.0,29.85,WNW,300,14.0,29.0,14,0.00,,,0.00,meteohub,2013-02-04 21:49:00,
2013-02-04 14:50:00,50.5,4.6,29.85,NW,306,14.0,26.0,15,0.00,,,0.00,meteohub,2013-02-04 21:50:00,
2013-02-04 14:51:00,50.5,4.6,29.85,NW,319,15.0,26.0,15,0.00,,,0.00,meteohub,2013-02-04 21:51:00,
2013-02-04 14:54:00,50.5,4.6,29.85,NNW,344,8.0,26.0,15,0.00,,,0.00,meteohub,2013-02-04 21:54:00,
2013-02-04 14:55:00,50.5,4.6,29.85,WNW,302,16.0,26.0,15,0.00,,,0.00,meteohub,2013-02-04 21:55:00,
2013-02-04 14:56:00,50.5,4.6,29.84,WNW,302,16.0,26.0,15,0.00,,,0.00,meteohub,2013-02-04 21:56:00,
2013-02-04 14:59:00,50.5,4.6,29.85,NW,325,18.0,26.0,15,0.00,,,0.00,meteohub,2013-02-04 21:59:00,
2013-02-04 15:01:00,50.4,4.5,29.85,WNW,290,8.0,32.0,15,0.00,,,0.00,meteohub,2013-02-04 22:01:00,
2013-02-04 15:02:00,50.4,4.5,29.85,WSW,246,14.0,32.0,15,0.00,,,0.00,meteohub,2013-02-04 22:02:00,
2013-02-04 15:05:00,50.5,4.6,29.85,NW,321,7.0,32.0,15,0.00,,,0.00,meteohub,2013-02-04 22:05:00,
2013-02-04 15:07:00,50.5,4.6,29.86,SW,217,14.0,32.0,15,0.00,,,0.00,meteohub,2013-02-04 22:07:00,
2013-02-04 15:08:00,50.4,4.5,29.85,NNW,330,7.0,32.0,15,0.00,,,0.00,meteohub,2013-02-04 22:08:00,
2013-02-04 15:10:00,50.4,4.5,29.86,West,267,10.0,32.0,15,0.00,,,0.00,meteohub,2013-02-04 22:10:00,
2013-02-04 15:14:00,50.4,5.9,29.86,NW,320,15.0,32.0,16,0.00,,,0.00,meteohub,2013-02-04 22:14:00,
2013-02-04 15:15:00,50.4,5.9,29.86,NW,304,14.0,32.0,16,0.00,,,0.00,meteohub,2013-02-04 22:15:00,
2013-02-04 15:16:00,50.4,5.9,29.86,WNW,302,24.0,31.0,16,0.00,,,0.00,meteohub,2013-02-04 22:16:00,
2013-02-04 15:19:00,50.4,5.9,29.86,WNW,292,18.0,31.0,16,0.00,,,0.00,meteohub,2013-02-04 22:19:00,
2013-02-04 15:20:00,50.4,5.9,29.86,WNW,286,8.0,31.0,16,0.00,,,0.00,meteohub,2013-02-04 22:20:00,
2013-02-04 15:21:00,50.2,5.7,29.86,NNW,331,9.0,33.0,16,0.00,,,0.00,meteohub,2013-02-04 22:21:00,
2013-02-04 15:25:00,50.2,5.7,29.85,West,271,7.0,33.0,16,0.00,,,0.00,meteohub,2013-02-04 22:25:00,
2013-02-04 15:26:00,50.2,5.7,29.85,NW,309,17.0,33.0,16,0.00,,,0.00,meteohub,2013-02-04 22:26:00,
2013-02-04 15:27:00,50.2,5.7,29.85,WNW,289,21.0,33.0,16,0.00,,,0.00,meteohub,2013-02-04 22:27:00,
2013-02-04 15:30:00,50.2,5.7,29.85,NW,304,15.0,33.0,16,0.00,,,0.00,meteohub,2013-02-04 22:30:00,
2013-02-04 15:32:00,50.2,5.7,29.85,WSW,254,14.0,33.0,16,0.00,,,0.00,meteohub,2013-02-04 22:32:00,
2013-02-04 15:33:00,50.2,5.7,29.85,West,273,14.0,33.0,16,0.00,,,0.00,meteohub,2013-02-04 22:33:00,
2013-02-04 15:36:00,50.2,7.0,29.85,NW,317,9.0,33.0,17,0.00,,,0.00,meteohub,2013-02-04 22:36:00,
2013-02-04 15:38:00,50.2,7.0,29.85,NW,309,10.0,33.0,17,0.00,,,0.00,meteohub,2013-02-04 22:38:00,
2013-02-04 15:40:00,50.0,6.8,29.85,WNW,289,17.0,33.0,17,0.00,,,0.00,meteohub,2013-02-04 22:40:00,
2013-02-04 15:42:00,50.0,5.5,29.85,NW,308,16.0,33.0,16,0.00,,,0.00,meteohub,2013-02-04 22:42:00,
2013-02-04 15:45:00,49.8,5.4,29.85,NW,315,10.0,33.0,16,0.00,,,0.00,meteohub,2013-02-04 22:45:00,
2013-02-04 15:46:00,49.8,6.8,29.85,NW,325,15.0,33.0,17,0.00,,,0.00,meteohub,2013-02-04 22:46:00,
2013-02-04 15:47:00,49.8,6.8,29.85,NW,309,27.0,33.0,17,0.00,,,0.00,meteohub,2013-02-04 22:47:00,
2013-02-04 15:51:00,49.8,5.4,29.85,NW,323,26.0,34.0,16,0.00,,,0.00,meteohub,2013-02-04 22:51:00,
2013-02-04 15:52:00,49.8,5.4,29.84,West,275,17.0,34.0,16,0.00,,,0.00,meteohub,2013-02-04 22:52:00,
2013-02-04 15:57:00,49.8,5.4,29.84,WNW,284,20.0,34.0,16,0.00,,,0.00,meteohub,2013-02-04 22:57:00,
2013-02-04 15:58:00,49.8,5.4,29.84,NNW,327,13.0,34.0,16,0.00,,,0.00,meteohub,2013-02-04 22:58:00,
2013-02-04 15:59:00,49.8,5.4,29.84,NW,311,13.0,34.0,16,0.00,,,0.00,meteohub,2013-02-04 22:59:00,
2013-02-04 16:02:00,49.8,5.4,29.84,NNW,333,6.0,34.0,16,0.00,,,0.00,meteohub,2013-02-04 23:02:00,
2013-02-04 16:13:00,50.0,8.1,29.83,NNW,343,18.0,30.0,18,0.00,,,0.00,meteohub,2013-02-04 23:13:00,
2013-02-04 16:14:00,50.0,6.8,29.84,NW,316,14.0,30.0,17,0.00,,,0.00,meteohub,2013-02-04 23:14:00,
2013-02-04 16:15:00,50.2,7.0,29.83,NW,306,20.0,28.0,17,0.00,,,0.00,meteohub,2013-02-04 23:15:00,
2013-02-04 16:19:00,50.2,7.0,29.83,NNW,331,14.0,28.0,17,0.00,,,0.00,meteohub,2013-02-04 23:19:00,
2013-02-04 16:20:00,50.4,7.2,29.84,WNW,302,23.0,28.0,17,0.00,,,0.00,meteohub,2013-02-04 23:20:00,
2013-02-04 16:22:00,50.4,7.2,29.83,WNW,293,16.0,28.0,17,0.00,,,0.00,meteohub,2013-02-04 23:22:00,
2013-02-04 16:26:00,50.4,7.2,29.83,NW,321,13.0,30.0,17,0.00,,,0.00,meteohub,2013-02-04 23:26:00,
2013-02-04 16:27:00,50.4,7.2,29.84,NW,317,12.0,30.0,17,0.00,,,0.00,meteohub,2013-02-04 23:27:00,
2013-02-04 16:28:00,50.4,7.2,29.84,NW,326,12.0,30.0,17,0.00,,,0.00,meteohub,2013-02-04 23:28:00,
2013-02-04 16:31:00,50.4,8.4,29.84,NNW,336,16.0,30.0,18,0.00,,,0.00,meteohub,2013-02-04 23:31:00,
2013-02-04 16:33:00,50.4,8.4,29.84,NNW,329,10.0,30.0,18,0.00,,,0.00,meteohub,2013-02-04 23:33:00,
2013-02-04 16:34:00,50.4,8.4,29.85,NW,315,14.0,30.0,18,0.00,,,0.00,meteohub,2013-02-04 23:34:00,
2013-02-04 16:37:00,50.4,8.4,29.85,NW,326,19.0,31.0,18,0.00,,,0.00,meteohub,2013-02-04 23:37:00,
2013-02-04 16:39:00,50.4,8.4,29.85,NW,307,15.0,31.0,18,0.00,,,0.00,meteohub,2013-02-04 23:39:00,
2013-02-04 16:41:00,50.4,8.4,29.85,WNW,300,12.0,31.0,18,0.00,,,0.00,meteohub,2013-02-04 23:41:00,
2013-02-04 16:43:00,50.4,7.2,29.85,NW,315,10.0,31.0,17,0.00,,,0.00,meteohub,2013-02-04 23:43:00,
2013-02-04 16:44:00,50.4,8.4,29.85,NNW,335,13.0,31.0,18,0.00,,,0.00,meteohub,2013-02-04 23:44:00,
2013-02-04 16:47:00,50.4,8.4,29.85,NW,315,8.0,25.0,18,0.00,,,0.00,meteohub,2013-02-04 23:47:00,
2013-02-04 16:48:00,50.4,8.4,29.85,NNW,344,15.0,25.0,18,0.00,,,0.00,meteohub,2013-02-04 23:48:00,
2013-02-04 16:51:00,50.4,8.4,29.85,NW,313,8.0,25.0,18,0.00,,,0.00,meteohub,2013-02-04 23:51:00,
2013-02-04 16:53:00,50.4,8.4,29.85,NW,307,18.0,25.0,18,0.00,,,0.00,meteohub,2013-02-04 23:53:00,
2013-02-04 16:54:00,50.4,8.4,29.85,WNW,301,20.0,25.0,18,0.00,,,0.00,meteohub,2013-02-04 23:54:00,
2013-02-04 16:56:00,50.2,8.2,29.85,NW,306,13.0,26.0,18,0.00,,,0.00,meteohub,2013-02-04 23:56:00,
2013-02-04 16:58:00,50.0,8.1,29.85,NW,323,12.0,26.0,18,0.00,,,0.00,meteohub,2013-02-04 23:58:00,
2013-02-04 16:59:00,50.0,8.1,29.85,WNW,301,21.0,26.0,18,0.00,,,0.00,meteohub,2013-02-04 23:59:00,
2013-02-04 17:01:00,49.8,9.1,29.85,NW,320,19.0,27.0,19,0.00,,,0.00,meteohub,2013-02-05 00:01:00,
2013-02-04 17:03:00,49.8,9.1,29.86,West,279,6.0,27.0,19,0.00,,,0.00,meteohub,2013-02-05 00:03:00,
2013-02-04 17:05:00,49.6,9.0,29.86,WNW,295,8.0,27.0,19,0.00,,,0.00,meteohub,2013-02-05 00:05:00,
2013-02-04 17:06:00,49.6,9.0,29.86,NW,306,13.0,29.0,19,0.00,,,0.00,meteohub,2013-02-05 00:06:00,
2013-02-04 17:08:00,49.5,9.0,29.86,West,271,14.0,29.0,19,0.00,,,0.00,meteohub,2013-02-05 00:08:00,
2013-02-04 17:11:00,49.5,9.0,29.86,WNW,300,12.0,29.0,19,0.00,,,0.00,meteohub,2013-02-05 00:11:00,
2013-02-04 17:13:00,49.3,8.8,29.86,NW,306,7.0,29.0,19,0.00,,,0.00,meteohub,2013-02-05 00:13:00,
2013-02-04 17:14:00,49.3,9.9,29.86,WNW,290,17.0,29.0,20,0.00,,,0.00,meteohub,2013-02-05 00:14:00,
2013-02-04 17:15:00,49.1,9.7,29.86,WNW,292,12.0,27.0,20,0.00,,,0.00,meteohub,2013-02-05 00:15:00,
2013-02-04 17:16:00,48.9,9.5,29.86,WNW,300,11.0,27.0,20,0.00,,,0.00,meteohub,2013-02-05 00:16:00,
2013-02-04 17:18:00,48.9,9.5,29.86,West,267,18.0,27.0,20,0.00,,,0.00,meteohub,2013-02-05 00:18:00,
2013-02-04 17:21:00,48.7,10.6,29.86,WNW,296,10.0,26.0,21,0.00,,,0.00,meteohub,2013-02-05 00:21:00,
2013-02-04 17:22:00,48.7,10.6,29.86,WNW,284,6.0,26.0,21,0.00,,,0.00,meteohub,2013-02-05 00:22:00,
2013-02-04 17:23:00,48.7,10.6,29.86,WNW,287,15.0,26.0,21,0.00,,,0.00,meteohub,2013-02-05 00:23:00,
2013-02-04 17:26:00,48.6,10.4,29.87,West,272,12.0,26.0,21,0.00,,,0.00,meteohub,2013-02-05 00:26:00,
2013-02-04 17:27:00,48.6,10.4,29.87,NW,308,9.0,26.0,21,0.00,,,0.00,meteohub,2013-02-05 00:27:00,
2013-02-04 17:29:00,48.6,10.4,29.87,NW,306,9.0,26.0,21,0.00,,,0.00,meteohub,2013-02-05 00:29:00,
2013-02-04 17:32:00,48.4,10.2,29.87,West,263,11.0,26.0,21,0.00,,,0.00,meteohub,2013-02-05 00:32:00,
2013-02-04 17:33:00,48.2,10.0,29.87,WNW,294,10.0,26.0,21,0.00,,,0.00,meteohub,2013-02-05 00:33:00,
2013-02-04 17:35:00,48.0,9.9,29.87,WNW,284,9.0,22.0,21,0.00,,,0.00,meteohub,2013-02-05 00:35:00,
2013-02-04 17:38:00,48.0,9.9,29.88,NW,326,8.0,22.0,21,0.00,,,0.00,meteohub,2013-02-05 00:38:00,
2013-02-04 17:39:00,47.8,9.9,29.88,NW,322,1.0,22.0,21,0.00,,,0.00,meteohub,2013-02-05 00:39:00,
2013-02-04 17:42:00,47.8,10.8,29.88,NNW,338,4.0,19.0,22,0.00,,,0.00,meteohub,2013-02-05 00:42:00,
2013-02-04 17:43:00,47.8,10.8,29.88,NNW,340,1.0,19.0,22,0.00,,,0.00,meteohub,2013-02-05 00:43:00,
2013-02-04 17:44:00,47.8,10.8,29.88,NNW,338,2.0,19.0,22,0.00,,,0.00,meteohub,2013-02-05 00:44:00,
2013-02-04 17:47:00,47.5,10.6,29.88,NW,325,4.0,14.0,22,0.00,,,0.00,meteohub,2013-02-05 00:47:00,
2013-02-04 17:49:00,47.5,10.6,29.88,WNW,295,6.0,14.0,22,0.00,,,0.00,meteohub,2013-02-05 00:49:00,
2013-02-04 17:52:00,47.3,10.4,29.88,WNW,301,4.0,11.0,22,0.00,,,0.00,meteohub,2013-02-05 00:52:00,
2013-02-04 17:55:00,47.1,10.2,29.89,WNW,303,4.0,11.0,22,0.00,,,0.00,meteohub,2013-02-05 00:55:00,
2013-02-04 17:56:00,47.1,10.2,29.88,West,270,3.0,10.0,22,0.00,,,0.00,meteohub,2013-02-05 00:56:00,
2013-02-04 17:57:00,47.1,10.2,29.88,WSW,240,3.0,10.0,22,0.00,,,0.00,meteohub,2013-02-05 00:57:00,
2013-02-04 18:00:00,46.8,9.9,29.88,West,279,9.0,9.0,22,0.00,,,0.00,meteohub,2013-02-05 01:00:00,
2013-02-04 18:02:00,46.8,9.9,29.89,WNW,291,4.0,7.0,22,0.00,,,0.00,meteohub,2013-02-05 01:02:00,
2013-02-04 18:03:00,46.8,10.9,29.89,NW,305,1.0,7.0,23,0.00,,,0.00,meteohub,2013-02-05 01:03:00,
2013-02-04 18:06:00,46.6,10.8,29.89,NW,321,5.0,11.0,23,0.00,,,0.00,meteohub,2013-02-05 01:06:00,
2013-02-04 18:07:00,46.8,10.9,29.89,NW,323,3.0,11.0,23,0.00,,,0.00,meteohub,2013-02-05 01:07:00,
2013-02-04 18:10:00,46.6,10.8,29.90,WNW,295,2.0,11.0,23,0.00,,,0.00,meteohub,2013-02-05 01:10:00,
2013-02-04 18:11:00,46.4,10.6,29.90,NW,310,4.0,11.0,23,0.00,,,0.00,meteohub,2013-02-05 01:11:00,
2013-02-04 18:12:00,46.4,10.6,29.90,NW,311,4.0,11.0,23,0.00,,,0.00,meteohub,2013-02-05 01:12:00,
2013-02-04 18:14:00,46.2,10.4,29.90,NW,317,5.0,11.0,23,0.00,,,0.00,meteohub,2013-02-05 01:14:00,
2013-02-04 18:16:00,46.2,10.4,29.90,NW,309,8.0,10.0,23,0.00,,,0.00,meteohub,2013-02-05 01:16:00,
2013-02-04 18:17:00,46.0,11.3,29.90,NW,318,7.0,10.0,24,0.00,,,0.00,meteohub,2013-02-05 01:17:00,
2013-02-04 18:19:00,45.9,12.0,29.90,West,278,7.0,10.0,25,0.00,,,0.00,meteohub,2013-02-05 01:19:00,
2013-02-04 18:20:00,45.9,12.0,29.90,WNW,303,6.0,12.0,25,0.00,,,0.00,meteohub,2013-02-05 01:20:00,
2013-02-04 18:23:00,45.7,11.8,29.90,NW,317,7.0,12.0,25,0.00,,,0.00,meteohub,2013-02-05 01:23:00,
2013-02-04 18:25:00,45.5,11.7,29.90,WNW,302,9.0,12.0,25,0.00,,,0.00,meteohub,2013-02-05 01:25:00,
2013-02-04 18:26:00,45.5,11.7,29.90,NW,320,11.0,12.0,25,0.00,,,0.00,meteohub,2013-02-05 01:26:00,
2013-02-04 18:30:00,45.3,13.3,29.91,NW,313,14.0,14.0,27,0.00,,,0.00,meteohub,2013-02-05 01:30:00,
2013-02-04 18:31:00,45.3,12.4,29.90,NW,311,6.0,16.0,26,0.00,,,0.00,meteohub,2013-02-05 01:31:00,
2013-02-04 18:32:00,45.3,12.4,29.91,NW,309,12.0,16.0,26,0.00,,,0.00,meteohub,2013-02-05 01:32:00,
2013-02-04 18:35:00,45.5,12.6,29.91,NNW,327,12.0,16.0,26,0.00,,,0.00,meteohub,2013-02-05 01:35:00,
2013-02-04 18:36:00,45.7,12.7,29.91,NNW,338,12.0,16.0,26,0.00,,,0.00,meteohub,2013-02-05 01:36:00,
2013-02-04 18:37:00,45.7,12.7,29.91,NW,323,10.0,16.0,26,0.00,,,0.00,meteohub,2013-02-05 01:37:00,
2013-02-04 18:40:00,45.7,12.7,29.91,NNW,333,13.0,16.0,26,0.00,,,0.00,meteohub,2013-02-05 01:40:00,
2013-02-04 18:41:00,45.9,12.9,29.91,NW,325,18.0,18.0,26,0.00,,,0.00,meteohub,2013-02-05 01:41:00,
2013-02-04 18:43:00,45.9,12.9,29.91,NNW,346,10.0,16.0,26,0.00,,,0.00,meteohub,2013-02-05 01:43:00,
2013-02-04 18:46:00,45.9,12.9,29.91,NW,315,6.0,18.0,26,0.00,,,0.00,meteohub,2013-02-05 01:46:00,
2013-02-04 18:48:00,46.0,12.2,29.90,WNW,290,11.0,18.0,25,0.00,,,0.00,meteohub,2013-02-05 01:48:00,
2013-02-04 18:52:00,46.0,13.1,29.90,NW,307,16.0,18.0,26,0.00,,,0.00,meteohub,2013-02-05 01:52:00,
2013-02-04 18:53:00,46.0,12.2,29.90,NW,324,10.0,18.0,25,0.00,,,0.00,meteohub,2013-02-05 01:53:00,
2013-02-04 18:57:00,46.2,12.4,29.91,NNW,331,7.0,21.0,25,0.00,,,0.00,meteohub,2013-02-05 01:57:00,
2013-02-04 18:58:00,46.4,12.6,29.91,NNW,343,11.0,21.0,25,0.00,,,0.00,meteohub,2013-02-05 01:58:00,
2013-02-04 19:00:00,46.6,12.6,29.91,NW,313,10.0,21.0,25,0.00,,,0.00,meteohub,2013-02-05 02:00:00,
2013-02-04 19:04:00,46.4,13.3,29.91,NNW,334,6.0,21.0,26,0.00,,,0.00,meteohub,2013-02-05 02:04:00,
2013-02-04 19:05:00,46.4,12.6,29.91,NNW,327,8.0,21.0,25,0.00,,,0.00,meteohub,2013-02-05 02:05:00,
2013-02-04 19:06:00,46.4,13.3,29.91,NW,321,10.0,21.0,26,0.00,,,0.00,meteohub,2013-02-05 02:06:00,
2013-02-04 19:08:00,46.2,13.3,29.91,NNW,336,6.0,21.0,26,0.00,,,0.00,meteohub,2013-02-05 02:08:00,
2013-02-04 19:10:00,46.2,13.3,29.91,NNW,344,6.0,21.0,26,0.00,,,0.00,meteohub,2013-02-05 02:10:00,
2013-02-04 19:11:00,46.2,13.3,29.91,NW,317,7.0,15.0,26,0.00,,,0.00,meteohub,2013-02-05 02:11:00,
2013-02-04 19:13:00,46.0,13.1,29.91,NW,322,8.0,15.0,26,0.00,,,0.00,meteohub,2013-02-05 02:13:00,
2013-02-04 19:15:00,46.0,13.1,29.91,NNW,329,6.0,15.0,26,0.00,,,0.00,meteohub,2013-02-05 02:15:00,
2013-02-04 19:16:00,45.9,12.9,29.91,NNW,334,6.0,15.0,26,0.00,,,0.00,meteohub,2013-02-05 02:16:00,
2013-02-04 19:17:00,45.9,12.9,29.91,NNW,336,6.0,15.0,26,0.00,,,0.00,meteohub,2013-02-05 02:17:00,
2013-02-04 19:18:00,45.9,12.9,29.91,NNW,344,5.0,15.0,26,0.00,,,0.00,meteohub,2013-02-05 02:18:00,
2013-02-04 19:21:00,45.7,13.6,29.92,NW,326,9.0,15.0,27,0.00,,,0.00,meteohub,2013-02-05 02:21:00,
2013-02-04 19:22:00,45.7,13.6,29.92,NNW,338,7.0,15.0,27,0.00,,,0.00,meteohub,2013-02-05 02:22:00,
2013-02-04 19:23:00,45.7,13.6,29.92,NNW,338,3.0,15.0,27,0.00,,,0.00,meteohub,2013-02-05 02:23:00,
2013-02-04 19:27:00,45.5,13.5,29.92,NNW,346,6.0,12.0,27,0.00,,,0.00,meteohub,2013-02-05 02:27:00,
2013-02-04 19:28:00,45.5,13.5,29.91,North,350,7.0,12.0,27,0.00,,,0.00,meteohub,2013-02-05 02:28:00,
2013-02-04 19:30:00,45.3,13.3,29.92,NNW,333,9.0,12.0,27,0.00,,,0.00,meteohub,2013-02-05 02:30:00,
2013-02-04 19:32:00,45.5,13.5,29.92,NW,321,10.0,13.0,27,0.00,,,0.00,meteohub,2013-02-05 02:32:00,
2013-02-04 19:33:00,45.5,13.5,29.91,NNW,342,5.0,13.0,27,0.00,,,0.00,meteohub,2013-02-05 02:33:00,
2013-02-04 19:34:00,45.5,13.5,29.91,North,351,7.0,13.0,27,0.00,,,0.00,meteohub,2013-02-05 02:34:00,
2013-02-04 19:38:00,45.7,13.6,29.91,NW,319,10.0,13.0,27,0.00,,,0.00,meteohub,2013-02-05 02:38:00,
2013-02-04 19:39:00,45.7,14.4,29.91,NW,324,3.0,13.0,28,0.00,,,0.00,meteohub,2013-02-05 02:39:00,
2013-02-04 19:40:00,45.7,14.4,29.91,NNW,338,9.0,13.0,28,0.00,,,0.00,meteohub,2013-02-05 02:40:00,
2013-02-04 19:43:00,45.7,14.4,29.91,NW,315,5.0,13.0,28,0.00,,,0.00,meteohub,2013-02-05 02:43:00,
2013-02-04 19:44:00,45.7,14.4,29.91,WNW,295,5.0,13.0,28,0.00,,,0.00,meteohub,2013-02-05 02:44:00,
2013-02-04 19:45:00,45.7,14.4,29.91,WNW,299,5.0,13.0,28,0.00,,,0.00,meteohub,2013-02-05 02:45:00,
2013-02-04 19:49:00,45.5,15.1,29.91,NW,306,8.0,12.0,29,0.00,,,0.00,meteohub,2013-02-05 02:49:00,
2013-02-04 19:50:00,45.5,14.4,29.91,WNW,283,14.0,14.0,28,0.00,,,0.00,meteohub,2013-02-05 02:50:00,
2013-02-04 19:51:00,45.5,14.4,29.91,WNW,295,15.0,15.0,28,0.00,,,0.00,meteohub,2013-02-05 02:51:00,
2013-02-04 19:56:00,45.3,14.2,29.91,WNW,288,5.0,20.0,28,0.00,,,0.00,meteohub,2013-02-05 02:56:00,
2013-02-04 19:57:00,45.3,14.2,29.91,West,267,5.0,20.0,28,0.00,,,0.00,meteohub,2013-02-05 02:57:00,
2013-02-04 20:01:00,45.1,14.0,29.90,WSW,250,3.0,20.0,28,0.00,,,0.00,meteohub,2013-02-05 03:01:00,
2013-02-04 20:02:00,45.1,14.0,29.90,WSW,250,3.0,20.0,28,0.00,,,0.00,meteohub,2013-02-05 03:02:00,
2013-02-04 20:03:00,45.1,14.0,29.90,WSW,250,0.0,20.0,28,0.00,,,0.00,meteohub,2013-02-05 03:03:00,
2013-02-04 20:07:00,45.0,13.8,29.90,WSW,250,5.0,20.0,28,0.00,,,0.00,meteohub,2013-02-05 03:07:00,
2013-02-04 20:08:00,45.0,13.8,29.90,WSW,250,3.0,20.0,28,0.00,,,0.00,meteohub,2013-02-05 03:08:00,
2013-02-04 20:09:00,45.0,13.8,29.90,WSW,250,4.0,20.0,28,0.00,,,0.00,meteohub,2013-02-05 03:09:00,
2013-02-04 20:12:00,44.8,14.5,29.90,West,265,4.0,8.0,29,0.00,,,0.00,meteohub,2013-02-05 03:12:00,
2013-02-04 20:13:00,44.8,14.5,29.91,West,265,3.0,8.0,29,0.00,,,0.00,meteohub,2013-02-05 03:13:00,
2013-02-04 20:14:00,44.6,14.4,29.91,West,265,4.0,8.0,29,0.00,,,0.00,meteohub,2013-02-05 03:14:00,
2013-02-04 20:17:00,44.4,14.2,29.91,WNW,284,5.0,6.0,29,0.00,,,0.00,meteohub,2013-02-05 03:17:00,
2013-02-04 20:19:00,44.4,14.2,29.91,West,263,4.0,6.0,29,0.00,,,0.00,meteohub,2013-02-05 03:19:00,
2013-02-04 20:20:00,44.2,14.0,29.91,WSW,254,5.0,6.0,29,0.00,,,0.00,meteohub,2013-02-05 03:20:00,
2013-02-04 20:21:00,44.2,14.0,29.91,WSW,254,1.0,6.0,29,0.00,,,0.00,meteohub,2013-02-05 03:21:00,
2013-02-04 20:24:00,44.2,14.7,29.91,WNW,302,7.0,7.0,30,0.00,,,0.00,meteohub,2013-02-05 03:24:00,
2013-02-04 20:26:00,44.1,13.8,29.91,WNW,291,4.0,8.0,29,0.00,,,0.00,meteohub,2013-02-05 03:26:00,
2013-02-04 20:27:00,43.9,13.6,29.91,West,275,3.0,8.0,29,0.00,,,0.00,meteohub,2013-02-05 03:27:00,
2013-02-04 20:29:00,43.9,13.6,29.91,WNW,296,7.0,8.0,29,0.00,,,0.00,meteohub,2013-02-05 03:29:00,
2013-02-04 20:32:00,43.9,13.6,29.91,WSW,242,3.0,9.0,29,0.00,,,0.00,meteohub,2013-02-05 03:32:00,
2013-02-04 20:33:00,43.9,13.6,29.91,West,267,5.0,9.0,29,0.00,,,0.00,meteohub,2013-02-05 03:33:00,
2013-02-04 20:34:00,43.9,13.6,29.91,West,264,8.0,9.0,29,0.00,,,0.00,meteohub,2013-02-05 03:34:00,
2013-02-04 20:37:00,43.9,13.6,29.91,West,267,3.0,13.0,29,0.00,,,0.00,meteohub,2013-02-05 03:37:00,
2013-02-04 20:38:00,44.1,13.8,29.91,West,266,2.0,13.0,29,0.00,,,0.00,meteohub,2013-02-05 03:38:00,
2013-02-04 20:39:00,44.1,13.8,29.91,West,266,3.0,13.0,29,0.00,,,0.00,meteohub,2013-02-05 03:39:00,
2013-02-04 20:41:00,44.1,13.8,29.91,WNW,293,5.0,13.0,29,0.00,,,0.00,meteohub,2013-02-05 03:41:00,
2013-02-04 20:44:00,44.1,13.8,29.91,WNW,290,7.0,13.0,29,0.00,,,0.00,meteohub,2013-02-05 03:44:00,
2013-02-04 20:47:00,44.1,13.8,29.91,WNW,294,6.0,10.0,29,0.00,,,0.00,meteohub,2013-02-05 03:47:00,
2013-02-04 20:49:00,44.1,13.8,29.91,West,269,4.0,10.0,29,0.00,,,0.00,meteohub,2013-02-05 03:49:00,
2013-02-04 20:52:00,44.1,13.8,29.91,WSW,254,4.0,10.0,29,0.00,,,0.00,meteohub,2013-02-05 03:52:00,
2013-02-04 20:54:00,44.1,13.8,29.91,West,271,4.0,10.0,29,0.00,,,0.00,meteohub,2013-02-05 03:54:00,
2013-02-04 20:57:00,44.1,13.8,29.91,WSW,257,0.0,10.0,29,0.00,,,0.00,meteohub,2013-02-05 03:57:00,
2013-02-04 20:59:00,44.1,13.8,29.91,West,263,2.0,10.0,29,0.00,,,0.00,meteohub,2013-02-05 03:59:00,
2013-02-04 21:00:00,44.1,13.8,29.91,WNW,290,5.0,9.0,29,0.00,,,0.00,meteohub,2013-02-05 04:00:00,
2013-02-04 21:05:00,44.1,13.8,29.91,West,261,3.0,9.0,29,0.00,,,0.00,meteohub,2013-02-05 04:05:00,
2013-02-04 21:06:00,44.2,14.0,29.91,WSW,252,6.0,10.0,29,0.00,,,0.00,meteohub,2013-02-05 04:06:00,
2013-02-04 21:07:00,44.2,14.0,29.91,WSW,258,6.0,10.0,29,0.00,,,0.00,meteohub,2013-02-05 04:07:00,
2013-02-04 21:09:00,44.2,14.0,29.91,West,261,2.0,10.0,29,0.00,,,0.00,meteohub,2013-02-05 04:09:00,
2013-02-04 21:11:00,44.2,14.0,29.91,WSW,250,4.0,10.0,29,0.00,,,0.00,meteohub,2013-02-05 04:11:00,
2013-02-04 21:13:00,44.2,14.0,29.91,WSW,256,5.0,10.0,29,0.00,,,0.00,meteohub,2013-02-05 04:13:00,
2013-02-04 21:14:00,44.2,14.0,29.91,West,277,5.0,10.0,29,0.00,,,0.00,meteohub,2013-02-05 04:14:00,
2013-02-04 21:15:00,44.2,14.0,29.90,West,276,8.0,10.0,29,0.00,,,0.00,meteohub,2013-02-05 04:15:00,
2013-02-04 21:17:00,44.2,14.0,29.90,West,269,4.0,10.0,29,0.00,,,0.00,meteohub,2013-02-05 04:17:00,
2013-02-04 21:20:00,44.4,14.2,29.91,WSW,257,5.0,9.0,29,0.00,,,0.00,meteohub,2013-02-05 04:20:00,
2013-02-04 21:21:00,44.4,14.2,29.91,West,264,6.0,9.0,29,0.00,,,0.00,meteohub,2013-02-05 04:21:00,
2013-02-04 21:22:00,44.4,14.2,29.91,West,266,6.0,9.0,29,0.00,,,0.00,meteohub,2013-02-05 04:22:00,
2013-02-04 21:23:00,44.4,14.2,29.91,West,269,6.0,9.0,29,0.00,,,0.00,meteohub,2013-02-05 04:23:00,
2013-02-04 21:26:00,44.6,14.4,29.90,West,270,7.0,11.0,29,0.00,,,0.00,meteohub,2013-02-05 04:26:00,
2013-02-04 21:27:00,44.8,14.5,29.90,SW,215,14.0,14.0,29,0.00,,,0.00,meteohub,2013-02-05 04:27:00,
2013-02-04 21:28:00,44.8,13.6,29.90,WSW,248,7.0,11.0,28,0.00,,,0.00,meteohub,2013-02-05 04:28:00,
2013-02-04 21:29:00,44.8,13.6,29.90,WSW,244,15.0,15.0,28,0.00,,,0.00,meteohub,2013-02-05 04:29:00,
2013-02-04 21:32:00,45.3,14.2,29.90,WSW,238,6.0,18.0,28,0.00,,,0.00,meteohub,2013-02-05 04:32:00,
2013-02-04 21:34:00,45.5,14.4,29.90,West,263,6.0,18.0,28,0.00,,,0.00,meteohub,2013-02-05 04:34:00,
2013-02-04 21:36:00,45.7,14.4,29.90,WSW,257,7.0,18.0,28,0.00,,,0.00,meteohub,2013-02-05 04:36:00,
2013-02-04 21:37:00,45.9,14.5,29.90,WSW,240,4.0,18.0,28,0.00,,,0.00,meteohub,2013-02-05 04:37:00,
2013-02-04 21:39:00,45.9,14.5,29.90,West,269,15.0,18.0,28,0.00,,,0.00,meteohub,2013-02-05 04:39:00,
2013-02-04 21:40:00,45.9,14.5,29.90,WNW,302,11.0,18.0,28,0.00,,,0.00,meteohub,2013-02-05 04:40:00,
2013-02-04 21:42:00,46.0,14.7,29.91,West,270,7.0,18.0,28,0.00,,,0.00,meteohub,2013-02-05 04:42:00,
2013-02-04 21:44:00,46.0,14.7,29.91,SW,234,4.0,18.0,28,0.00,,,0.00,meteohub,2013-02-05 04:44:00,
2013-02-04 21:45:00,46.0,14.7,29.91,West,267,10.0,17.0,28,0.00,,,0.00,meteohub,2013-02-05 04:45:00,
2013-02-04 21:46:00,46.0,14.7,29.91,WNW,286,7.0,17.0,28,0.00,,,0.00,meteohub,2013-02-05 04:46:00,
2013-02-04 21:48:00,46.0,14.7,29.91,West,270,7.0,17.0,28,0.00,,,0.00,meteohub,2013-02-05 04:48:00,
2013-02-04 21:51:00,46.0,14.7,29.91,West,265,6.0,17.0,28,0.00,,,0.00,meteohub,2013-02-05 04:51:00,
2013-02-04 21:52:00,46.0,14.7,29.91,WNW,285,6.0,17.0,28,0.00,,,0.00,meteohub,2013-02-05 04:52:00,
2013-02-04 21:56:00,45.9,14.5,29.90,West,277,9.0,17.0,28,0.00,,,0.00,meteohub,2013-02-05 04:56:00,
2013-02-04 21:57:00,45.9,14.5,29.90,WNW,288,7.0,17.0,28,0.00,,,0.00,meteohub,2013-02-05 04:57:00,
2013-02-04 21:58:00,45.9,14.5,29.91,NW,313,7.0,17.0,28,0.00,,,0.00,meteohub,2013-02-05 04:58:00,
2013-02-04 22:00:00,45.9,14.5,29.91,NW,320,6.0,17.0,28,0.00,,,0.00,meteohub,2013-02-05 05:00:00,
2013-02-04 22:01:00,45.7,14.4,29.91,WNW,297,7.0,15.0,28,0.00,,,0.00,meteohub,2013-02-05 05:01:00,
2013-02-04 22:02:00,45.7,14.4,29.91,WNW,301,4.0,15.0,28,0.00,,,0.00,meteohub,2013-02-05 05:02:00,
2013-02-04 22:05:00,45.5,15.1,29.91,NW,313,7.0,15.0,29,0.00,,,0.00,meteohub,2013-02-05 05:05:00,
2013-02-04 22:07:00,45.1,14.7,29.91,WNW,294,8.0,15.0,29,0.00,,,0.00,meteohub,2013-02-05 05:07:00,
2013-02-04 22:08:00,45.1,14.7,29.91,West,280,9.0,15.0,29,0.00,,,0.00,meteohub,2013-02-05 05:08:00,
2013-02-04 22:09:00,45.1,14.7,29.91,WNW,300,7.0,15.0,29,0.00,,,0.00,meteohub,2013-02-05 05:09:00,
2013-02-04 22:12:00,44.8,14.5,29.91,NNW,327,5.0,15.0,29,0.00,,,0.00,meteohub,2013-02-05 05:12:00,
2013-02-04 22:13:00,44.8,14.5,29.91,NW,324,8.0,15.0,29,0.00,,,0.00,meteohub,2013-02-05 05:13:00,
2013-02-04 22:15:00,44.4,14.2,29.91,West,271,8.0,15.0,29,0.00,,,0.00,meteohub,2013-02-05 05:15:00,
2013-02-04 22:18:00,44.1,14.5,29.91,WNW,287,9.0,10.0,30,0.00,,,0.00,meteohub,2013-02-05 05:18:00,
2013-02-04 22:20:00,44.1,14.5,29.91,WNW,294,8.0,12.0,30,0.00,,,0.00,meteohub,2013-02-05 05:20:00,
2013-02-04 22:21:00,43.9,14.4,29.91,West,281,8.0,12.0,30,0.00,,,0.00,meteohub,2013-02-05 05:21:00,
2013-02-04 22:24:00,43.9,14.4,29.91,NW,319,7.0,12.0,30,0.00,,,0.00,meteohub,2013-02-05 05:24:00,
2013-02-04 22:25:00,43.7,14.4,29.91,West,268,10.0,13.0,30,0.00,,,0.00,meteohub,2013-02-05 05:25:00,
2013-02-04 22:26:00,43.7,14.4,29.91,West,278,9.0,13.0,30,0.00,,,0.00,meteohub,2013-02-05 05:26:00,
2013-02-04 22:30:00,43.9,14.4,29.91,WNW,286,9.0,19.0,30,0.00,,,0.00,meteohub,2013-02-05 05:30:00,
2013-02-04 22:31:00,43.9,15.3,29.91,WNW,302,8.0,19.0,31,0.00,,,0.00,meteohub,2013-02-05 05:31:00,
2013-02-04 22:32:00,43.9,15.3,29.91,West,273,10.0,19.0,31,0.00,,,0.00,meteohub,2013-02-05 05:32:00,
2013-02-04 22:33:00,43.9,14.4,29.91,NW,309,10.0,19.0,30,0.00,,,0.00,meteohub,2013-02-05 05:33:00,
2013-02-04 22:37:00,44.1,14.5,29.91,West,279,10.0,19.0,30,0.00,,,0.00,meteohub,2013-02-05 05:37:00,
2013-02-04 22:38:00,44.1,14.5,29.91,WNW,294,18.0,19.0,30,0.00,,,0.00,meteohub,2013-02-05 05:38:00,
2013-02-04 22:39:00,44.1,15.3,29.91,NW,306,10.0,19.0,31,0.00,,,0.00,meteohub,2013-02-05 05:39:00,
2013-02-04 22:42:00,44.2,15.4,29.91,NW,305,6.0,20.0,31,0.00,,,0.00,meteohub,2013-02-05 05:42:00,
2013-02-04 22:44:00,44.4,14.9,29.91,NNW,333,6.0,20.0,30,0.00,,,0.00,meteohub,2013-02-05 05:44:00,
2013-02-04 22:45:00,44.4,14.9,29.91,NW,315,9.0,20.0,30,0.00,,,0.00,meteohub,2013-02-05 05:45:00,
2013-02-04 22:47:00,44.4,14.9,29.91,WNW,293,13.0,20.0,30,0.00,,,0.00,meteohub,2013-02-05 05:47:00,
2013-02-04 22:49:00,44.4,14.9,29.91,WNW,293,4.0,20.0,30,0.00,,,0.00,meteohub,2013-02-05 05:49:00,
2013-02-04 22:50:00,44.4,14.9,29.91,WNW,298,7.0,20.0,30,0.00,,,0.00,meteohub,2013-02-05 05:50:00,
2013-02-04 22:51:00,44.4,14.9,29.92,West,264,3.0,22.0,30,0.00,,,0.00,meteohub,2013-02-05 05:51:00,
2013-02-04 22:54:00,44.4,14.9,29.92,NW,316,9.0,22.0,30,0.00,,,0.00,meteohub,2013-02-05 05:54:00,
2013-02-04 22:56:00,44.4,14.9,29.92,West,277,16.0,22.0,30,0.00,,,0.00,meteohub,2013-02-05 05:56:00,
2013-02-04 22:57:00,44.4,14.9,29.92,West,273,10.0,22.0,30,0.00,,,0.00,meteohub,2013-02-05 05:57:00,
2013-02-04 23:00:00,44.4,14.9,29.92,West,279,9.0,22.0,30,0.00,,,0.00,meteohub,2013-02-05 06:00:00,
2013-02-04 23:01:00,44.4,14.9,29.92,NNW,328,10.0,22.0,30,0.00,,,0.00,meteohub,2013-02-05 06:01:00,
2013-02-04 23:02:00,44.4,14.9,29.92,NW,317,13.0,22.0,30,0.00,,,0.00,meteohub,2013-02-05 06:02:00,
2013-02-04 23:03:00,44.6,15.1,29.92,WNW,298,10.0,22.0,30,0.00,,,0.00,meteohub,2013-02-05 06:03:00,
2013-02-04 23:07:00,44.4,14.9,29.91,West,277,10.0,18.0,30,0.00,,,0.00,meteohub,2013-02-05 06:07:00,
2013-02-04 23:08:00,44.4,14.9,29.91,NW,307,8.0,18.0,30,0.00,,,0.00,meteohub,2013-02-05 06:08:00,
2013-02-04 23:10:00,44.4,14.9,29.92,NNW,339,9.0,18.0,30,0.00,,,0.00,meteohub,2013-02-05 06:10:00,
2013-02-04 23:11:00,44.4,14.9,29.91,NW,309,12.0,18.0,30,0.00,,,0.00,meteohub,2013-02-05 06:11:00,
2013-02-04 23:12:00,44.4,14.9,29.91,NNW,335,4.0,18.0,30,0.00,,,0.00,meteohub,2013-02-05 06:12:00,
2013-02-04 23:15:00,44.4,14.9,29.92,West,272,10.0,18.0,30,0.00,,,0.00,meteohub,2013-02-05 06:15:00,
2013-02-04 23:16:00,44.6,15.1,29.91,NW,315,8.0,22.0,30,0.00,,,0.00,meteohub,2013-02-05 06:16:00,
2013-02-04 23:17:00,44.6,15.1,29.92,West,278,7.0,22.0,30,0.00,,,0.00,meteohub,2013-02-05 06:17:00,
2013-02-04 23:20:00,44.6,15.1,29.92,West,274,14.0,22.0,30,0.00,,,0.00,meteohub,2013-02-05 06:20:00,
2013-02-04 23:21:00,44.6,15.1,29.92,NW,317,10.0,22.0,30,0.00,,,0.00,meteohub,2013-02-05 06:21:00,
2013-02-04 23:24:00,44.8,15.3,29.92,NW,325,10.0,22.0,30,0.00,,,0.00,meteohub,2013-02-05 06:24:00,
2013-02-04 23:25:00,44.8,15.3,29.92,WNW,300,8.0,19.0,30,0.00,,,0.00,meteohub,2013-02-05 06:25:00,
2013-02-04 23:26:00,44.8,15.3,29.92,NW,315,8.0,19.0,30,0.00,,,0.00,meteohub,2013-02-05 06:26:00,
2013-02-04 23:27:00,44.8,15.3,29.92,NNW,331,10.0,19.0,30,0.00,,,0.00,meteohub,2013-02-05 06:27:00,
2013-02-04 23:29:00,44.6,15.1,29.92,NW,306,10.0,19.0,30,0.00,,,0.00,meteohub,2013-02-05 06:29:00,
2013-02-04 23:32:00,44.6,15.1,29.92,NNW,333,6.0,17.0,30,0.00,,,0.00,meteohub,2013-02-05 06:32:00,
2013-02-04 23:33:00,44.4,15.6,29.92,NW,319,9.0,17.0,31,0.00,,,0.00,meteohub,2013-02-05 06:33:00,
2013-02-04 23:34:00,44.4,15.6,29.92,NW,325,5.0,17.0,31,0.00,,,0.00,meteohub,2013-02-05 06:34:00,
2013-02-04 23:37:00,44.2,15.4,29.92,NW,315,5.0,17.0,31,0.00,,,0.00,meteohub,2013-02-05 06:37:00,
2013-02-04 23:38:00,44.2,15.4,29.92,NW,311,6.0,17.0,31,0.00,,,0.00,meteohub,2013-02-05 06:38:00,
2013-02-04 23:41:00,44.2,15.4,29.92,NNW,344,8.0,16.0,31,0.00,,,0.00,meteohub,2013-02-05 06:41:00,
2013-02-04 23:42:00,44.1,15.3,29.92,NW,325,8.0,16.0,31,0.00,,,0.00,meteohub,2013-02-05 06:42:00,
2013-02-04 23:43:00,44.1,15.3,29.92,NW,324,10.0,16.0,31,0.00,,,0.00,meteohub,2013-02-05 06:43:00,
2013-02-04 23:44:00,44.1,15.3,29.92,NW,322,7.0,16.0,31,0.00,,,0.00,meteohub,2013-02-05 06:44:00,
2013-02-04 23:47:00,44.1,15.3,29.92,NW,322,6.0,13.0,31,0.00,,,0.00,meteohub,2013-02-05 06:47:00,
2013-02-04 23:48:00,43.9,15.3,29.92,NW,310,7.0,13.0,31,0.00,,,0.00,meteohub,2013-02-05 06:48:00,
2013-02-04 23:50:00,43.9,15.3,29.92,NW,323,3.0,13.0,31,0.00,,,0.00,meteohub,2013-02-05 06:50:00,
2013-02-04 23:52:00,43.9,15.3,29.92,NNW,336,2.0,13.0,31,0.00,,,0.00,meteohub,2013-02-05 06:52:00,
2013-02-04 23:53:00,43.9,15.3,29.92,NNW,336,1.0,13.0,31,0.00,,,0.00,meteohub,2013-02-05 06:53:00,
2013-02-04 23:54:00,43.7,15.1,29.92,NNW,336,0.0,13.0,31,0.00,,,0.00,meteohub,2013-02-05 06:54:00,
2013-02-04 23:57:00,43.5,14.9,29.93,NNW,339,2.0,13.0,31,0.00,,,0.00,meteohub,2013-02-05 06:57:00,
2013-02-04 23:58:00,43.5,14.2,29.93,NNW,339,3.0,13.0,30,0.00,,,0.00,meteohub,2013-02-05 06:58:00,
2013-02-04 23:59:00,43.5,14.2,29.93,NNW,339,1.0,13.0,30,0.00,,,0.00,meteohub,2013-02-05 06:59:00,